[{"header": {"dx": 0.06612293990616946, "dy": 0.0552356325346848, "nx": 98, "ny": 59, "la1": 35.046912555036876, "la2": 31.78801023549047, "lo1": -121.43107172385933, "lo2": -114.95102361305473, "refTime": "2026041305", "parameterCategory": 1, "parameterNumber": 2}, "data": [5.75, 5.75, 5.75, 6.28, 6.51, 6.51, 6.51, 6.72, 6.3, 6.47, 6.47, 6.16, 6.26, 5.81, 5.36, 4.92, 5.29, 5.75, 5.7, 5.7, 5.7, 5.7, 5.59, 6.65, 7.11, 6.98, 5.75, 4.46, 4.11, 4.74, 4.74, 4.81, 4.84, 4.66, 4.02, 3.6, 2.15, 1.41, 0.73, 0.81, 1.55, 3.47, 6.52, 7.44, 8.8, 9.49, 10.15, 10.01, 8.63, 6.26, 5.43, 6.07, 7.07, 7.69, 8.67, 8.68, 9.9, 10.28, 10.8, 10.23, 9.84, 8.88, 9.05, 9.27, 9.27, 9.84, 10.8, 11.75, 13.23, 14.68, 15.61, 15.41, 14.7, 13.49, 12.58, 12.37, 12.14, 9.15, 3.2, -0.0, -0.0, 0.57, 0.63, 0.89, 2.24, 4.87, 5.75, 6.21, 7.11, 9.26, 11.36, 11.87, 12.37, 13.07, 13.05, 9.39, 5.75, 5.09, 6.28, 6.28, 6.28, 6.51, 6.51, 6.6, 6.79, 6.79, 6.51, 6.47, 6.16, 6.65, 6.26, 5.36, 5.81, 5.36, 2.68, 5.81, 5.36, 4.85, 5.2, 5.2, 5.81, 6.58, 6.21, 6.02, 4.8, 3.83, 3.07, 3.72, 4.74, 4.74, 4.46, 3.83, 3.07, 2.6, 1.2, 0.7, 0.0, 0.0, 0.81, 3.4, 6.32, 8.06, 8.67, 10.23, 9.74, 7.71, 5.81, 5.05, 5.82, 6.7, 7.67, 7.92, 7.59, 8.67, 9.65, 10.23, 10.8, 10.8, 9.84, 9.27, 9.27, 8.88, 9.03, 9.6, 10.8, 11.75, 13.23, 14.17, 15.1, 14.92, 13.78, 13.05, 12.14, 12.14, 12.14, 9.15, 3.2, -0.0, -0.0, 0.57, 0.63, 0.89, 2.24, 4.87, 5.75, 6.21, 7.11, 9.26, 11.36, 11.87, 12.37, 13.07, 13.05, 9.39, 5.75, 5.09, 6.67, 6.28, 6.6, 7.01, 7.01, 6.79, 6.79, 6.94, 6.94, 6.61, 6.6, 6.23, 6.26, 5.36, 4.02, 4.02, 3.13, 5.36, 5.36, 5.2, 4.57, 5.2, 5.81, 6.64, 6.79, 3.74, 3.2, 2.6, 1.58, 1.49, 2.3, 3.22, 3.11, 3.91, 3.49, 2.68, 1.26, 0.0, 0.0, 0.0, 1.45, 4.37, 7.27, 7.97, 9.04, 9.2, 7.42, 5.31, 4.84, 5.82, 6.7, 7.67, 7.67, 7.67, 6.96, 7.69, 9.27, 10.23, 10.8, 10.8, 9.84, 8.67, 8.67, 8.67, 8.63, 9.6, 10.4, 11.34, 12.29, 13.23, 14.17, 14.92, 14.21, 13.21, 11.08, 11.4, 11.84, 9.58, 2.4, -0.0, -0.0, 1.49, 2.12, 1.34, 1.2, 3.95, 5.77, 6.07, 7.28, 10.25, 12.14, 12.81, 12.7, 11.45, 7.6, 4.46, 4.43, 5.69, 6.8, 6.8, 7.01, 7.01, 7.01, 7.26, 7.26, 7.4, 6.94, 6.61, 6.6, 6.23, 6.21, 5.36, 2.68, 2.68, 3.13, 5.36, 4.47, 4.38, 4.15, 4.77, 5.2, 6.02, 6.7, 7.21, 4.24, 2.6, 1.2, -0.0, -0.0, -0.0, 0.7, 2.99, 5.24, 3.47, 1.79, 0.0, 0.0, 0.82, 2.31, 4.71, 5.59, 6.08, 6.4, 5.77, 5.16, 5.43, 6.07, 7.03, 6.9, 7.6, 7.03, 6.7, 6.7, 7.69, 8.88, 10.23, 10.8, 10.8, 9.84, 8.67, 8.3, 7.69, 8.3, 9.03, 9.27, 10.26, 11.3, 12.79, 13.99, 14.83, 14.92, 13.56, 10.71, 9.39, 9.39, 8.8, 2.23, -0.99, -0.0, 2.21, 4.24, 2.24, 1.2, 1.79, 3.95, 5.86, 8.0, 11.34, 13.23, 13.23, 11.62, 8.01, 3.49, 3.72, 5.05, 6.79, 7.2, 7.31, 7.51, 7.51, 7.51, 7.69, 7.26, 7.4, 6.94, 6.61, 6.6, 6.16, 6.21, 5.75, 3.13, 3.13, 4.41, 4.85, 4.02, 3.58, 4.47, 4.47, 4.92, 5.36, 5.36, 6.61, 7.06, 4.77, 1.34, -0.0, -0.0, -0.71, -0.0, 2.98, 5.81, 5.36, 4.02, 2.54, 1.66, 0.82, 2.4, 2.86, 2.68, 3.95, 4.66, 4.8, 5.46, 6.07, 7.03, 7.03, 6.64, 6.44, 6.44, 6.44, 6.7, 8.06, 9.27, 10.23, 10.87, 10.8, 9.27, 8.3, 7.32, 7.44, 7.32, 8.05, 8.05, 8.32, 9.92, 11.9, 14.11, 16.24, 16.53, 15.61, 12.3, 7.6, 4.41, 3.58, 2.5, -0.8, -0.6, 2.23, 6.07, 5.36, 2.24, 2.12, 4.66, 8.4, 10.8, 12.39, 12.7, 11.62, 7.89, 1.9, 1.41, 3.79, 5.44, 6.66, 7.31, 7.31, 7.51, 7.51, 7.51, 7.69, 7.26, 7.26, 6.94, 6.51, 6.47, 6.16, 6.65, 5.75, 3.51, 3.07, 4.85, 4.85, 3.58, 3.13, 3.58, 4.47, 5.36, 5.36, 5.36, 5.36, 6.26, 5.81, 3.39, 0.8, -0.0, -0.0, -0.0, 1.34, 4.66, 5.77, 4.92, 5.75, 3.22, 0.0, 0.0, 0.45, 1.9, 3.84, 4.81, 5.43, 6.06, 7.06, 7.06, 6.7, 6.44, 6.44, 6.08, 6.39, 7.69, 8.67, 9.27, 9.84, 10.8, 10.8, 9.6, 7.07, 6.08, 6.08, 6.44, 7.06, 7.02, 7.64, 8.6, 11.54, 14.11, 16.1, 18.23, 19.1, 17.22, 11.08, 3.07, 1.34, 2.4, 0.57, -0.0, 2.24, 5.81, 7.15, 5.31, 5.05, 7.67, 11.34, 12.94, 12.7, 11.75, 8.63, 2.86, -0.0, 1.49, 4.0, 6.07, 6.21, 7.31, 7.31, 7.51, 7.51, 7.51, 7.69, 7.26, 7.21, 6.94, 6.51, 6.47, 6.04, 6.51, 5.31, 6.14, 3.51, 4.85, 5.29, 4.02, 3.13, 3.13, 4.02, 4.92, 5.81, 5.81, 4.92, 4.92, 4.92, 3.82, 2.6, 1.58, 0.8, 1.26, 2.24, 4.24, 4.24, 4.66, 6.71, 3.9, 0.0, -1.79, -1.2, -0.0, 3.35, 3.93, 5.43, 6.68, 8.03, 7.68, 7.64, 7.28, 6.08, 6.7, 7.06, 7.69, 8.63, 9.2, 9.49, 10.01, 10.52, 8.55, 5.82, 4.46, 4.81, 5.37, 6.24, 7.59, 7.97, 8.65, 10.9, 13.83, 15.35, 17.22, 20.19, 20.7, 17.04, 9.26, 2.24, 2.6, 5.36, 2.24, 3.04, 6.07, 9.26, 10.25, 9.7, 10.53, 11.5, 12.7, 12.14, 8.67, 2.24, -0.0, 0.76, 2.79, 5.16, 6.66, 5.81, 7.71, 7.93, 7.51, 7.51, 7.51, 7.69, 7.26, 7.21, 6.79, 6.79, 6.3, 6.04, 6.02, 5.09, 6.23, 4.66, 5.16, 5.29, 4.02, 3.13, 1.79, 1.79, 2.12, 4.38, 5.36, 5.36, 4.34, 1.79, 1.6, 3.39, 4.02, 1.79, 2.24, 4.82, 4.93, 4.09, 3.49, 4.93, 6.17, 2.12, -0.89, -1.79, -1.34, 1.58, 3.16, 4.43, 5.06, 7.02, 7.64, 8.58, 6.44, 6.39, 7.06, 8.05, 8.24, 8.55, 8.82, 9.11, 10.02, 9.11, 6.79, 3.83, 2.41, 4.01, 4.71, 6.42, 8.53, 8.94, 9.27, 11.09, 13.49, 15.41, 17.44, 19.29, 20.16, 18.29, 14.92, 10.02, 8.01, 8.49, 8.94, 6.36, 8.25, 11.06, 12.66, 12.79, 11.69, 10.87, 10.68, 9.33, 4.02, 0.65, -0.0, 1.49, 4.0, 6.66, 6.71, 5.81, 7.71, 7.71, 7.51, 7.51, 7.51, 7.51, 7.26, 7.21, 6.79, 6.79, 6.3, 5.81, 6.36, 5.59, 5.51, 5.09, 4.57, 4.15, 3.47, 1.79, 1.79, 1.6, 1.6, 1.58, 2.23, 4.34, 2.54, 1.34, 1.34, 4.92, 4.98, 3.48, 2.95, 4.29, 4.0, 3.74, 3.16, 4.29, 5.4, 3.04, 0.89, -0.0, 1.34, -0.0, 2.53, 3.16, 4.74, 6.52, 7.41, 7.68, 8.58, 7.06, 7.67, 7.6, 7.89, 8.19, 8.36, 8.91, 8.9, 6.66, 3.74, 1.6, 1.55, 3.2, 4.83, 7.08, 9.92, 10.48, 10.01, 10.93, 13.21, 15.5, 18.26, 18.72, 18.72, 17.27, 14.57, 12.74, 11.96, 11.6, 11.15, 9.28, 10.6, 12.66, 12.39, 10.65, 9.34, 8.55, 7.56, 5.32, 2.0, 0.65, 0.65, 2.5, 4.87, 7.15, 6.66, 4.47, 7.71, 7.71, 7.51, 7.51, 7.51, 7.51, 7.09, 7.21, 6.79, 6.79, 6.72, 6.1, 6.3, 6.3, 5.09, 5.51, 4.57, 3.6, 3.82, 3.39, 3.35, 3.72, 2.84, 1.58, 1.49, 2.84, 1.9, 1.58, 1.49, 4.65, 5.37, 2.95, 1.6, 1.9, 2.23, 3.04, 4.0, 3.07, 3.47, 3.58, 2.8, 1.58, 0.95, 1.58, 2.21, 2.84, 3.48, 5.21, 6.7, 7.44, 7.69, 8.06, 7.69, 7.07, 7.35, 7.71, 7.45, 7.15, 4.92, 2.24, 0.87, 0.78, 2.06, 3.15, 4.83, 7.27, 10.28, 11.47, 10.37, 10.28, 12.52, 15.18, 17.42, 17.88, 17.88, 16.09, 13.41, 11.62, 11.18, 11.62, 12.07, 13.41, 13.12, 11.8, 7.06, 2.8, 2.8, 3.32, 2.6, 1.79, 1.26, 1.24, 1.26, 2.17, 4.47, 7.15, 6.26, 4.02, 7.71, 7.71, 7.51, 7.51, 7.51, 7.51, 7.09, 7.21, 7.21, 6.79, 6.79, 6.6, 6.6, 6.6, 6.16, 6.51, 6.02, 5.24, 5.09, 5.02, 2.8, 4.15, 3.2, 1.86, 3.22, 1.49, 1.74, 2.23, 3.22, 4.43, 4.29, 2.5, 1.58, 1.7, 2.4, 3.2, 4.98, 3.04, 3.13, 4.4, 4.46, 3.16, 2.21, 3.72, 3.35, 1.24, 1.9, 3.22, 4.46, 5.21, 6.06, 6.95, 7.59, 7.18, 6.53, 6.95, 7.97, 4.84, 0.0, -1.58, -0.0, 0.77, 2.23, 3.15, 5.28, 7.9, 10.28, 11.5, 10.68, 9.81, 10.7, 12.79, 14.47, 14.93, 15.05, 14.15, 11.45, 9.54, 8.63, 9.11, 9.74, 10.73, 11.09, 9.39, 1.79, 0.45, 0.0, 0.0, 0.45, 0.0, 0.63, 1.2, 1.7, 2.24, 4.02, 6.71, 5.36, 3.97, 7.71, 7.71, 7.31, 7.51, 7.51, 7.51, 7.09, 7.01, 7.21, 7.21, 6.79, 6.79, 6.6, 7.01, 7.09, 7.26, 6.94, 6.51, 6.6, 6.6, 6.16, 6.16, 5.7, 6.14, 4.8, 4.65, 5.01, 4.11, 3.48, 3.58, 3.6, 3.51, 2.68, 2.68, 3.51, 4.24, 3.97, 3.07, 2.8, 4.19, 4.81, 5.15, 4.81, 5.75, 4.09, 1.24, 2.21, 3.79, 4.65, 4.74, 4.95, 5.38, 5.95, 5.4, 5.4, 6.21, 8.72, 8.76, 1.2, -2.8, -1.52, 1.62, 3.06, 3.09, 4.6, 7.54, 10.15, 11.92, 11.06, 10.91, 10.53, 11.75, 12.5, 12.05, 10.75, 8.91, 6.28, 4.4, 5.6, 4.93, 3.13, 3.95, 6.4, 8.4, 3.48, 1.58, 0.89, 0.0, -0.63, 0.0, 0.45, 0.89, 1.79, 2.68, 4.47, 6.26, 4.87, 3.97, 7.71, 7.71, 7.31, 7.51, 7.51, 7.09, 7.01, 7.01, 7.01, 7.21, 6.79, 6.79, 6.79, 7.26, 7.51, 7.51, 7.69, 7.4, 6.94, 7.06, 7.07, 7.51, 7.51, 7.07, 6.61, 6.47, 6.47, 6.3, 6.6, 6.79, 5.59, 4.92, 4.47, 4.92, 4.92, 4.02, 3.58, 3.32, 2.86, 3.49, 4.46, 5.43, 5.43, 3.45, 1.86, 1.6, 2.12, 4.4, 4.65, 4.11, 3.72, 3.79, 3.91, 2.9, 3.61, 4.54, 6.44, 12.01, 9.2, -0.0, -2.28, 1.56, 3.21, 2.31, 3.07, 5.45, 8.19, 10.35, 11.28, 12.07, 14.14, 15.71, 16.3, 14.17, 6.26, 0.57, 0.0, 0.0, 0.45, 0.63, 0.6, 1.9, 5.44, 6.54, 7.06, 7.69, 7.35, 3.07, 1.34, 1.34, 1.34, 1.34, 1.79, 2.68, 4.92, 5.81, 4.47, 4.47, 7.71, 7.71, 7.51, 7.51, 7.51, 7.09, 7.01, 7.21, 7.21, 7.21, 6.79, 6.79, 6.79, 7.26, 7.69, 7.74, 7.69, 7.26, 6.94, 6.94, 7.4, 7.87, 7.87, 7.87, 8.3, 8.3, 8.33, 8.33, 8.33, 8.77, 8.77, 7.56, 8.49, 5.36, 5.36, 4.02, 3.51, 2.91, 2.8, 3.32, 3.74, 4.41, 5.26, 6.61, 4.77, 4.02, 2.24, 2.24, 2.24, 3.82, 3.72, 3.72, 2.84, 1.27, 1.41, 3.07, 4.74, 11.2, 15.58, 3.72, -2.35, -0.0, 3.47, 3.21, 2.34, 3.96, 5.63, 7.29, 9.19, 11.08, 14.45, 17.93, 20.09, 19.19, 8.63, -2.6, -3.13, -0.6, 0.57, 2.21, 3.22, 4.8, 6.85, 7.76, 6.8, 8.63, 10.68, 9.6, 7.56, 6.54, 6.55, 4.02, 4.87, 4.85, 4.87, 4.87, 3.58, 3.58, 7.71, 7.31, 7.51, 7.51, 7.09, 7.09, 7.01, 7.21, 7.21, 7.21, 6.79, 6.79, 7.21, 7.26, 7.74, 7.74, 7.69, 7.21, 6.94, 6.94, 7.4, 7.87, 7.87, 8.33, 8.33, 8.77, 8.79, 9.23, 9.68, 9.68, 10.14, 10.13, 10.22, 8.43, 8.05, 7.15, 6.17, 2.91, 5.81, 3.51, 4.41, 7.15, 6.71, 5.81, 4.92, 4.47, 4.47, 4.47, 4.02, 1.79, 1.79, 3.58, 1.34, -0.0, -0.0, 1.58, 3.58, 9.36, 15.05, 7.47, -0.76, -0.0, 2.39, 3.45, 2.39, 2.23, 4.72, 6.45, 7.65, 9.69, 12.87, 17.66, 20.86, 22.07, 13.96, 1.34, -1.2, 0.57, 3.84, 6.0, 7.47, 8.4, 9.58, 9.62, 8.46, 7.45, 9.33, 10.27, 10.0, 10.68, 10.95, 9.74, 8.05, 6.71, 6.26, 3.51, 3.07, 3.07, 7.71, 7.31, 7.51, 7.09, 7.01, 7.01, 7.01, 7.21, 7.21, 7.21, 6.79, 6.79, 7.21, 7.26, 7.74, 7.74, 7.69, 7.4, 6.94, 6.94, 7.4, 7.87, 8.3, 8.33, 8.77, 8.77, 9.23, 9.67, 9.57, 10.04, 10.47, 10.94, 10.58, 10.23, 8.05, 4.02, 3.95, 3.74, 7.06, 7.15, 4.92, 4.47, 6.71, 5.81, 5.36, 4.92, 4.92, 4.92, 4.92, 4.47, 4.92, 2.68, 2.12, 1.2, 0.89, 2.68, 4.09, 7.4, 9.83, 5.37, 0.7, -0.0, 1.14, 2.12, 1.1, 2.26, 3.4, 5.72, 8.15, 10.16, 12.56, 17.51, 21.23, 20.87, 15.61, 9.27, 7.68, 8.68, 9.2, 9.33, 10.25, 10.75, 11.4, 11.52, 10.7, 8.05, 6.66, 7.28, 8.55, 10.01, 11.87, 10.18, 8.01, 7.12, 7.6, 4.47, 3.07, 3.07, 7.71, 7.31, 7.51, 7.01, 7.01, 7.01, 7.01, 7.21, 7.21, 7.21, 6.79, 6.79, 7.21, 7.26, 7.74, 7.74, 7.69, 7.4, 6.94, 6.97, 7.4, 7.74, 8.3, 8.33, 8.77, 8.67, 9.11, 9.57, 10.01, 10.04, 10.47, 10.94, 10.5, 10.52, 6.22, 4.92, 4.47, 5.36, 5.36, 7.15, 7.6, 4.02, 6.71, 3.13, 5.81, 5.36, 5.36, 5.36, 5.81, 5.81, 5.81, 5.7, 5.4, 4.4, 4.34, 4.92, 6.17, 7.08, 7.52, 6.32, 4.74, 2.73, 2.23, 1.41, 1.19, 2.0, 2.98, 4.43, 8.54, 11.21, 14.58, 16.09, 19.67, 17.81, 12.81, 10.12, 12.72, 16.11, 16.24, 13.75, 12.56, 12.65, 13.05, 12.79, 11.96, 8.46, 4.02, 4.24, 8.63, 11.4, 12.35, 9.74, 6.66, 6.67, 7.56, 6.26, 4.02, 4.02, 7.71, 7.31, 7.51, 7.01, 7.01, 7.01, 7.01, 7.21, 7.21, 7.21, 7.21, 6.79, 7.26, 7.69, 7.74, 7.74, 7.69, 7.4, 6.94, 7.4, 7.84, 7.74, 8.17, 8.33, 8.77, 8.77, 9.11, 9.11, 9.57, 10.01, 10.47, 10.47, 10.5, 10.47, 9.68, 7.89, 6.21, 6.61, 6.17, 5.7, 4.82, 3.58, 3.13, 3.58, 6.26, 5.81, 5.81, 5.81, 5.81, 6.26, 6.17, 5.94, 6.36, 6.36, 6.36, 6.61, 6.71, 7.08, 7.31, 6.8, 6.13, 5.01, 3.79, 3.48, 2.84, 2.6, 3.2, 5.2, 8.41, 11.57, 14.71, 16.52, 18.31, 15.93, 11.2, 8.53, 11.82, 17.32, 19.59, 17.19, 15.49, 16.03, 15.84, 12.35, 8.82, 6.51, 3.97, 5.75, 7.56, 9.72, 11.66, 10.45, 6.26, 4.47, 4.87, 5.16, 6.55, 6.55, 7.71, 7.51, 7.51, 7.01, 7.01, 7.01, 6.6, 6.79, 7.21, 7.26, 7.26, 7.26, 7.26, 7.69, 7.74, 8.19, 7.4, 7.4, 6.94, 7.4, 7.84, 7.74, 7.74, 7.42, 6.98, 7.08, 7.26, 7.71, 7.71, 8.64, 9.43, 10.04, 10.47, 10.47, 10.47, 10.04, 10.01, 9.39, 7.71, 6.36, 4.73, 4.85, 4.82, 7.06, 6.61, 6.26, 6.26, 6.26, 6.26, 6.26, 6.17, 6.61, 6.36, 6.79, 7.21, 7.31, 7.52, 7.52, 7.31, 7.31, 6.8, 5.75, 5.36, 3.83, 3.2, 2.98, 3.6, 5.75, 8.05, 10.73, 13.36, 16.69, 19.86, 18.06, 12.58, 8.82, 10.75, 14.87, 17.68, 18.16, 18.39, 18.82, 16.82, 11.99, 8.36, 5.16, 3.97, 4.87, 7.15, 6.66, 9.26, 12.3, 9.39, 3.13, 2.4, 3.83, 5.34, 5.34, 7.93, 7.51, 7.51, 7.09, 7.01, 6.6, 6.79, 6.79, 6.79, 7.26, 7.26, 7.26, 7.26, 7.69, 7.74, 7.87, 7.84, 7.4, 7.42, 6.98, 6.07, 7.4, 7.69, 6.79, 6.51, 5.64, 6.51, 7.69, 8.21, 8.64, 9.11, 9.43, 9.86, 10.04, 10.47, 10.34, 10.34, 10.34, 10.04, 9.57, 9.23, 8.77, 8.33, 7.97, 7.51, 7.6, 6.71, 6.71, 6.71, 6.71, 6.71, 6.61, 6.61, 7.06, 4.41, 4.73, 7.74, 4.73, 5.09, 7.21, 6.8, 6.13, 5.75, 5.81, 3.83, 3.2, 4.15, 6.07, 8.01, 9.8, 11.84, 16.69, 20.77, 20.5, 16.09, 11.86, 11.66, 13.05, 16.07, 17.62, 19.42, 20.32, 17.73, 11.98, 6.66, 3.53, 3.07, 4.24, 4.47, 3.58, 6.66, 12.07, 10.73, 3.07, 1.24, 2.86, 5.86, 5.86, 7.93, 7.51, 7.51, 7.09, 7.01, 6.79, 6.79, 6.79, 6.79, 7.26, 7.26, 7.26, 7.26, 7.69, 7.74, 8.17, 7.87, 7.69, 7.26, 7.42, 6.07, 6.94, 7.87, 8.17, 8.17, 8.17, 8.17, 8.64, 8.64, 9.11, 8.96, 9.39, 9.43, 9.86, 9.86, 9.86, 9.91, 10.47, 10.47, 10.47, 10.14, 10.13, 9.68, 9.23, 8.77, 8.87, 7.52, 7.15, 7.15, 6.71, 6.71, 6.71, 6.71, 6.71, 7.08, 4.41, 5.16, 4.73, 6.79, 6.79, 6.79, 5.81, 5.4, 5.2, 1.86, 1.26, 2.8, 5.75, 7.89, 9.08, 11.37, 14.92, 21.34, 21.44, 16.09, 12.47, 12.65, 12.47, 12.56, 14.67, 17.88, 20.05, 18.52, 13.56, 8.36, 3.07, 2.6, 3.97, 9.36, 6.22, 6.4, 8.63, 7.15, 2.4, 1.24, 3.07, 5.44, 5.44, 7.93, 7.51, 7.51, 7.09, 7.21, 7.21, 6.79, 6.79, 7.26, 7.26, 7.69, 7.69, 7.69, 7.69, 7.74, 8.17, 8.3, 7.74, 7.74, 7.69, 7.84, 7.87, 8.3, 8.21, 8.64, 8.67, 9.11, 9.11, 9.11, 9.39, 9.39, 9.39, 9.39, 9.43, 9.43, 9.86, 9.86, 9.86, 9.86, 10.01, 10.01, 10.01, 9.57, 9.57, 9.11, 8.64, 8.43, 7.52, 7.06, 7.15, 6.71, 6.71, 6.71, 6.71, 6.71, 7.06, 4.73, 6.07, 7.52, 6.71, 4.85, 3.04, 2.6, 1.6, 1.26, 1.58, 2.23, 4.19, 5.43, 6.95, 9.08, 13.02, 20.7, 22.26, 2.44, 6.36, 9.13, 8.82, 8.49, 10.79, 14.21, 16.54, 16.83, 14.7, 11.03, 7.21, 3.53, 4.92, 10.28, 10.7, 6.13, 2.91, 3.13, 2.8, 2.4, 3.32, 5.16, 5.16, 7.51, 7.51, 7.51, 7.09, 7.26, 7.26, 7.26, 7.26, 7.26, 7.69, 7.69, 7.69, 7.69, 7.69, 7.69, 7.87, 8.3, 8.17, 8.17, 7.74, 7.74, 8.17, 8.64, 8.64, 9.11, 9.11, 9.54, 9.57, 9.57, 9.43, 9.43, 9.39, 9.39, 9.39, 9.39, 9.39, 9.39, 9.39, 9.39, 9.43, 9.43, 9.43, 9.54, 9.11, 9.11, 8.64, 9.11, 7.74, 7.06, 7.06, 6.61, 6.61, 6.71, 6.71, 6.71, 6.71, 5.59, 7.21, 7.06, 4.47, 4.02, 4.02, 3.04, 1.26, 0.71, 1.24, 1.49, 2.41, 2.76, 3.2, 6.69, 10.23, 27.06, 9.16, -4.75, 0.0, 4.28, 4.87, 5.0, 6.7, 9.49, 12.37, 12.96, 12.87, 12.62, 11.71, 10.25, 8.49, 8.94, 8.19, 4.02, 1.2, 2.24, 2.63, 3.07, 3.53, 4.43, 4.43, 7.51, 7.51, 7.51, 7.51, 7.26, 7.26, 7.26, 7.26, 7.69, 7.69, 7.69, 7.69, 7.69, 7.69, 7.69, 7.87, 8.33, 8.64, 8.17, 8.17, 8.17, 8.17, 8.64, 9.07, 8.96, 8.96, 9.39, 9.43, 9.86, 9.86, 9.86, 9.43, 9.43, 9.39, 9.39, 9.39, 9.39, 9.39, 9.39, 9.39, 9.39, 8.96, 8.96, 8.96, 8.96, 8.48, 9.6, 8.17, 7.21, 7.21, 7.06, 7.06, 6.61, 6.71, 6.26, 6.26, 4.85, 6.94, 7.31, 4.92, 2.54, 2.0, 2.0, 0.71, 0.71, 1.74, 2.21, 3.22, 1.8, 2.68, 5.34, 18.65, 28.67, 20.86, 5.36, -1.14, 0.0, 1.14, 2.1, 3.68, 6.36, 8.23, 9.89, 11.09, 12.52, 13.41, 12.96, 8.94, 5.34, 6.01, 5.43, 2.6, 2.68, 3.13, 2.68, 3.58, 3.53, 3.53, 7.51, 7.51, 7.51, 7.51, 7.51, 7.51, 7.69, 7.69, 7.69, 7.69, 7.69, 7.74, 7.74, 7.69, 7.69, 7.74, 8.21, 8.64, 8.64, 8.17, 8.17, 8.17, 8.64, 8.91, 8.96, 8.96, 9.39, 9.43, 9.86, 9.86, 9.86, 9.43, 9.43, 9.39, 9.39, 9.39, 9.39, 9.39, 9.39, 9.39, 8.96, 8.96, 9.11, 9.11, 9.11, 8.96, 9.07, 8.64, 7.74, 7.74, 7.4, 8.43, 7.52, 7.15, 6.26, 6.26, 5.81, 5.31, 7.52, 6.79, 3.58, 0.89, -0.0, 0.57, 1.49, 1.49, 2.15, 2.15, 3.48, 6.26, 9.81, 13.86, 21.43, 24.78, 20.19, 6.71, 0.0, 0.0, 0.0, 0.76, 2.76, 5.78, 8.18, 10.38, 11.84, 12.42, 10.28, 5.05, 2.88, 4.07, 7.52, 7.54, 6.11, 4.02, 3.13, 2.63, 3.07, 3.07, 7.51, 7.51, 7.51, 7.51, 7.51, 7.51, 7.51, 7.69, 7.69, 7.69, 7.74, 7.74, 7.74, 7.69, 7.74, 8.17, 8.64, 8.64, 8.64, 8.17, 8.17, 8.21, 8.64, 9.07, 8.96, 8.96, 9.39, 9.39, 9.86, 9.86, 9.86, 9.43, 9.39, 9.39, 9.39, 9.39, 9.39, 9.39, 9.39, 9.54, 9.11, 9.11, 9.11, 9.11, 9.11, 9.11, 9.54, 9.54, 9.11, 9.11, 9.23, 8.77, 8.87, 8.05, 7.15, 6.71, 6.71, 6.26, 6.71, 7.5, 6.36, 3.58, 1.26, 0.95, 1.58, 1.24, 2.21, 3.79, 6.7, 8.01, 9.39, 12.96, 15.78, 21.54, 23.92, 20.55, 8.91, 0.0, -0.7, 0.0, 0.0, 3.37, 6.95, 9.14, 10.38, 9.58, 6.07, 3.9, 3.79, 3.69, 5.94, 10.99, 11.09, 7.01, 3.07, 2.5, 3.49, 3.49, 7.51, 7.51, 7.51, 7.51, 7.51, 7.51, 7.51, 7.51, 7.69, 7.69, 7.74, 7.74, 7.74, 7.74, 7.74, 8.17, 8.48, 8.48, 8.64, 8.17, 8.21, 8.64, 8.64, 9.11, 8.96, 8.96, 9.39, 9.21, 9.21, 9.21, 9.39, 9.39, 9.39, 9.39, 9.39, 8.96, 8.96, 8.96, 8.96, 9.54, 9.54, 9.54, 9.57, 9.57, 9.57, 9.57, 9.57, 9.57, 9.57, 9.57, 9.68, 9.68, 9.32, 8.86, 7.11, 5.36, 7.6, 7.15, 4.92, 5.81, 7.52, 6.07, 4.34, 2.97, 3.35, 1.9, 3.48, 5.21, 6.94, 8.63, 10.16, 12.04, 14.57, 17.04, 18.86, 23.52, 22.22, 5.64, -1.47, -0.7, 0.0, 1.43, 4.96, 7.28, 6.96, 3.53, 2.84, 3.79, 4.03, 3.79, 5.06, 9.05, 13.07, 9.83, 5.44, 4.09, 5.31, 5.31, 7.51, 7.51, 7.51, 7.51, 7.51, 7.51, 7.51, 7.51, 7.51, 7.69, 7.74, 7.74, 7.74, 7.74, 8.17, 8.48, 8.91, 8.64, 8.21, 8.17, 8.21, 8.64, 9.11, 9.11, 8.96, 9.39, 9.39, 9.39, 9.21, 8.79, 8.79, 8.96, 8.96, 8.96, 8.96, 8.96, 8.96, 8.96, 8.96, 8.96, 9.39, 9.39, 9.39, 9.54, 9.54, 9.54, 9.57, 9.57, 9.57, 9.68, 9.68, 9.68, 9.68, 9.68, 9.32, 7.56, 8.43, 7.6, 5.36, 5.81, 6.66, 7.55, 6.21, 3.95, 2.53, 3.79, 4.84, 5.34, 6.51, 8.63, 10.62, 12.52, 13.41, 14.3, 15.91, 19.97, 25.73, 17.91, 2.4, -0.76, 0.0, 1.16, 3.52, 4.29, 2.8, 1.86, 2.11, 3.11, 4.65, 5.43, 5.43, 8.24, 12.7, 11.57, 9.18, 7.2, 7.33, 7.33, 7.31, 7.31, 7.51, 7.51, 7.51, 7.51, 7.51, 7.51, 7.51, 7.69, 7.74, 7.74, 7.74, 8.0, 8.0, 8.48, 8.91, 8.64, 8.21, 8.21, 8.64, 8.64, 8.96, 8.96, 8.96, 8.96, 8.96, 8.96, 8.96, 8.96, 8.91, 8.91, 8.91, 8.91, 8.91, 8.91, 8.91, 8.91, 8.96, 8.96, 8.96, 9.39, 8.96, 8.63, 8.36, 8.77, 9.11, 9.11, 9.11, 9.57, 9.68, 9.68, 9.68, 9.68, 9.68, 9.23, 9.33, 7.97, 5.81, 5.81, 6.71, 7.6, 5.75, 3.6, 3.16, 4.81, 5.82, 6.02, 6.26, 8.49, 11.18, 13.41, 14.28, 13.53, 15.41, 17.73, 20.05, 22.57, 15.91, 3.2, 0.0, 0.55, 2.2, 3.07, 2.4, 3.43, 3.64, 3.79, 5.46, 6.07, 6.07, 7.67, 10.8, 12.66, 11.47, 9.86, 9.18, 9.18, 7.31, 7.31, 7.31, 7.51, 7.51, 7.51, 7.51, 7.51, 7.51, 7.69, 7.69, 8.0, 8.0, 8.0, 8.48, 8.48, 8.48, 8.64, 8.21, 8.64, 8.64, 8.48, 8.91, 8.96, 8.96, 8.96, 8.96, 8.96, 8.96, 8.91, 8.91, 8.91, 8.91, 8.91, 8.48, 8.48, 8.91, 8.91, 8.91, 8.96, 8.91, 8.91, 8.91, 8.64, 8.21, 7.89, 7.45, 8.17, 8.64, 9.11, 9.11, 9.11, 9.68, 9.68, 9.68, 9.23, 9.32, 8.42, 7.11, 6.21, 7.15, 7.6, 5.31, 3.6, 4.19, 5.21, 6.44, 7.74, 6.71, 7.21, 9.7, 12.96, 16.09, 16.82, 14.95, 14.07, 13.89, 16.25, 20.55, 15.2, 3.07, 1.16, 2.4, 3.54, 4.84, 5.36, 6.0, 6.96, 7.28, 7.28, 7.28, 8.63, 11.2, 13.35, 12.93, 12.13, 11.3, 11.3, 7.2, 7.2, 7.2, 6.8, 7.09, 7.51, 7.51, 7.09, 7.09, 7.51, 7.51, 8.0, 8.0, 8.22, 8.42, 8.48, 8.64, 8.21, 8.21, 8.64, 8.64, 8.48, 8.91, 8.91, 8.91, 8.91, 8.91, 8.91, 8.48, 8.48, 8.48, 8.48, 8.48, 8.48, 8.48, 8.48, 8.48, 8.91, 8.91, 8.48, 8.48, 8.64, 8.64, 8.64, 8.48, 7.71, 6.98, 7.87, 8.17, 8.64, 8.79, 8.77, 8.77, 9.23, 9.23, 9.23, 9.23, 8.77, 8.41, 7.56, 7.55, 7.15, 5.75, 4.66, 3.83, 4.15, 5.75, 8.37, 8.87, 7.5, 6.79, 9.8, 14.75, 19.22, 16.25, 9.92, 7.02, 9.65, 14.21, 17.42, 11.54, 3.82, 4.02, 5.26, 6.6, 7.76, 9.1, 9.14, 9.05, 8.4, 7.85, 8.49, 9.7, 12.39, 14.27, 13.86, 13.18, 13.18, 7.2, 7.2, 6.8, 6.8, 6.8, 7.01, 7.01, 7.01, 7.09, 7.51, 8.0, 8.0, 8.0, 8.0, 8.0, 8.21, 8.21, 8.21, 8.21, 8.64, 8.64, 8.48, 8.91, 8.91, 8.91, 8.91, 8.91, 8.48, 8.82, 8.17, 8.48, 8.48, 8.48, 8.48, 8.48, 8.48, 8.48, 8.48, 8.48, 8.64, 8.64, 8.64, 8.48, 8.48, 8.91, 8.96, 8.64, 8.77, 8.77, 8.77, 8.77, 8.77, 8.77, 8.77, 8.77, 8.77, 8.77, 8.42, 8.77, 8.42, 8.01, 7.15, 6.21, 5.31, 4.41, 3.58, 3.95, 7.15, 9.83, 9.39, 6.65, 7.42, 11.18, 17.4, 16.07, 4.93, 0.0, 3.07, 8.63, 11.75, 11.62, 7.6, 5.36, 6.68, 7.21, 8.0, 9.88, 11.41, 10.68, 8.93, 7.46, 7.46, 8.93, 11.47, 14.27, 14.79, 14.53, 14.53, 6.8, 6.8, 6.8, 6.8, 6.8, 6.8, 7.01, 7.01, 7.51, 7.51, 8.0, 8.0, 8.0, 8.0, 8.17, 8.17, 8.21, 8.21, 8.64, 8.64, 8.64, 8.48, 8.48, 8.48, 8.48, 8.48, 8.48, 8.48, 8.0, 8.63, 7.74, 8.0, 8.0, 8.06, 8.48, 8.48, 8.48, 8.06, 8.17, 8.17, 8.0, 8.48, 8.48, 8.48, 8.48, 8.91, 9.11, 8.67, 8.77, 8.77, 8.77, 8.77, 8.77, 8.77, 8.77, 8.42, 8.42, 8.42, 8.42, 8.87, 8.92, 6.66, 7.52, 5.75, 5.36, 5.36, 4.8, 5.43, 8.17, 9.39, 7.55, 7.15, 9.39, 16.01, 20.77, 11.08, 0.95, 1.26, 5.44, 7.76, 7.6, 7.57, 7.48, 6.58, 7.21, 8.0, 9.7, 11.39, 10.95, 7.98, 6.94, 7.06, 8.06, 9.89, 12.01, 14.68, 14.35, 14.35, 6.8, 6.8, 7.2, 7.2, 6.8, 6.8, 6.8, 6.8, 7.31, 7.71, 7.71, 8.0, 7.58, 7.74, 8.17, 8.17, 8.17, 8.17, 8.21, 8.64, 8.64, 8.48, 8.48, 8.48, 8.48, 8.48, 8.48, 8.48, 8.48, 8.17, 8.17, 8.17, 8.17, 8.17, 8.0, 8.0, 8.0, 8.17, 8.17, 8.0, 8.0, 8.42, 8.48, 8.48, 8.48, 8.48, 8.64, 8.64, 8.77, 8.77, 8.77, 8.77, 8.77, 8.77, 8.33, 8.42, 8.47, 8.92, 8.92, 9.39, 9.39, 8.05, 7.52, 7.15, 6.26, 6.26, 6.21, 6.07, 7.6, 8.41, 8.0, 8.22, 10.04, 14.67, 20.32, 19.08, 11.23, 7.56, 9.39, 9.81, 8.01, 6.26, 7.33, 7.73, 7.33, 8.48, 10.01, 10.47, 8.67, 5.86, 3.6, 5.75, 6.85, 8.38, 9.74, 13.21, 13.64, 13.64, 7.2, 7.2, 7.2, 7.2, 6.8, 6.8, 6.8, 7.2, 7.31, 7.71, 7.31, 7.51, 7.69, 7.69, 7.74, 8.17, 8.17, 8.17, 8.17, 8.48, 8.48, 8.48, 8.48, 8.48, 8.48, 8.48, 8.48, 8.0, 8.48, 8.48, 8.06, 8.17, 8.17, 8.0, 8.0, 8.0, 7.58, 7.58, 8.0, 8.0, 8.0, 8.0, 8.0, 8.0, 8.0, 8.17, 8.21, 8.21, 8.33, 8.77, 8.77, 8.77, 8.33, 8.33, 8.42, 8.47, 8.94, 8.94, 9.39, 9.39, 8.49, 8.94, 8.05, 7.6, 7.6, 7.6, 6.65, 6.98, 7.21, 8.05, 8.55, 10.55, 13.44, 15.91, 18.17, 17.0, 14.17, 13.29, 15.12, 14.3, 9.36, 5.81, 4.3, 6.13, 8.14, 9.39, 9.23, 6.66, 3.82, 3.07, 3.07, 3.07, 5.59, 6.58, 7.12, 8.38, 11.28, 11.28, 7.2, 7.2, 7.2, 7.2, 6.8, 6.8, 7.2, 7.08, 7.08, 7.31, 7.51, 7.09, 7.26, 7.69, 7.74, 8.0, 8.0, 8.0, 8.0, 8.42, 8.48, 8.48, 8.48, 8.48, 8.48, 8.42, 8.0, 8.0, 8.0, 8.0, 8.0, 8.0, 8.0, 8.0, 8.0, 8.0, 7.51, 7.51, 8.0, 8.0, 8.0, 8.0, 8.0, 8.17, 8.17, 8.17, 8.17, 8.17, 8.17, 8.17, 8.17, 8.17, 8.3, 8.3, 8.42, 8.47, 8.94, 8.94, 9.39, 9.39, 8.94, 8.05, 8.94, 7.15, 6.66, 7.52, 6.51, 7.21, 7.35, 7.42, 9.2, 10.01, 14.37, 15.93, 16.07, 12.87, 11.45, 14.21, 18.06, 17.37, 9.81, 2.24, 1.34, 2.68, 5.16, 7.33, 6.55, 3.53, 2.4, 2.15, 2.68, 3.45, 5.34, 6.51, 7.48, 8.82, 9.62, 9.62, 7.2, 7.2, 7.2, 7.2, 7.2, 7.2, 7.08, 7.08, 7.31, 7.2, 7.01, 7.01, 7.09, 7.51, 7.58, 8.0, 8.0, 8.0, 8.0, 8.0, 8.42, 8.42, 8.42, 8.42, 8.0, 8.0, 8.0, 8.0, 8.0, 8.0, 8.0, 8.0, 8.0, 8.0, 8.0, 7.51, 7.51, 7.51, 8.0, 8.0, 8.0, 8.0, 7.51, 7.21, 7.26, 7.74, 7.74, 8.17, 8.17, 8.17, 8.17, 7.74, 7.87, 7.97, 8.47, 8.49, 8.94, 8.94, 9.39, 8.92, 8.92, 8.47, 8.94, 6.71, 7.11, 7.97, 6.51, 6.79, 6.7, 6.98, 8.33, 10.02, 13.23, 15.74, 14.23, 10.73, 9.39, 12.52, 17.86, 16.4, 7.2, -0.0, 0.0, 0.6, 2.24, 4.43, 6.11, 3.82, 2.5, 2.15, 2.68, 3.6, 4.52, 7.89, 8.8, 9.81, 10.71, 10.18, 7.2, 7.2, 7.2, 7.2, 7.2, 7.31, 7.31, 7.31, 7.31, 6.8, 7.01, 7.01, 7.09, 7.51, 7.51, 7.51, 8.0, 8.0, 8.0, 8.0, 8.0, 8.0, 8.0, 8.0, 8.0, 8.0, 8.0, 8.0, 8.0, 8.0, 8.0, 8.0, 7.81, 8.0, 8.0, 7.51, 7.51, 7.51, 8.0, 8.0, 8.0, 8.0, 7.51, 6.98, 7.37, 7.69, 7.51, 7.51, 7.51, 7.51, 7.69, 7.87, 7.97, 8.03, 8.49, 8.49, 8.49, 8.49, 8.92, 8.92, 8.92, 8.47, 8.87, 6.66, 7.11, 7.97, 7.74, 6.7, 6.79, 6.98, 7.42, 9.54, 12.51, 15.61, 15.84, 9.36, 5.34, 9.33, 13.79, 10.18, 1.4, -0.8, -0.63, -0.57, 0.0, 2.24, 3.82, 4.0, 3.14, 3.07, 3.39, 3.82, 5.2, 9.36, 10.7, 11.18, 11.62, 10.71, 7.2, 7.2, 7.2, 7.2, 7.31, 7.31, 7.31, 7.31, 7.2, 7.01, 6.6, 7.01, 7.51, 7.51, 7.51, 7.51, 7.51, 8.0, 8.0, 8.0, 8.0, 8.0, 8.0, 8.0, 8.0, 8.0, 8.0, 8.0, 8.0, 8.0, 8.0, 7.81, 7.81, 7.51, 7.51, 7.51, 7.51, 7.51, 7.93, 8.0, 8.0, 7.51, 7.51, 7.26, 6.79, 7.26, 7.51, 7.09, 7.09, 7.69, 7.69, 7.87, 8.03, 8.05, 8.05, 8.49, 8.47, 8.92, 8.92, 8.92, 8.87, 8.86, 7.97, 8.43, 7.97, 7.52, 6.51, 6.51, 7.21, 7.21, 7.63, 8.63, 11.56, 14.53, 15.59, 11.09, 7.15, 6.4, 6.79, 2.68, -0.0, -1.7, -1.79, -2.12, -1.26, 0.32, 2.17, 3.45, 4.52, 5.86, 4.43, 4.47, 6.26, 9.83, 11.18, 11.62, 11.62, 11.62, 7.2, 7.2, 6.8, 6.8, 7.31, 7.31, 7.31, 7.51, 7.09, 7.01, 6.8, 6.8, 6.8, 7.31, 7.51, 7.51, 7.51, 7.93, 8.0, 8.0, 8.0, 8.0, 8.0, 8.0, 8.0, 8.0, 8.0, 8.0, 8.0, 8.0, 7.81, 7.81, 7.51, 7.51, 7.51, 7.51, 7.51, 7.51, 7.93, 7.93, 7.51, 7.51, 7.51, 7.51, 7.51, 7.21, 7.01, 6.6, 7.21, 7.26, 7.4, 7.52, 8.05, 8.05, 8.05, 8.47, 8.47, 8.92, 8.92, 8.87, 8.87, 8.42, 9.33, 7.97, 7.52, 7.52, 6.07, 7.5, 6.51, 7.21, 7.71, 8.63, 10.18, 12.18, 13.51, 15.53, 13.23, 9.72, 5.36, 3.95, 2.17, 0.0, -1.79, -1.79, -1.34, 0.0, 0.89, 2.68, 4.87, 7.56, 8.05, 7.15, 7.57, 10.16, 11.06, 10.7, 10.7, 10.7, 6.8, 6.8, 6.8, 6.8, 6.8, 7.31, 7.51, 7.51, 7.09, 7.01, 6.8, 6.8, 6.8, 7.2, 7.31, 7.31, 7.31, 7.31, 7.31, 7.93, 7.93, 8.0, 8.0, 8.0, 8.0, 8.0, 8.0, 8.0, 8.0, 8.0, 7.81, 7.51, 7.51, 7.51, 7.51, 7.51, 7.31, 7.31, 7.51, 7.51, 7.51, 7.51, 7.51, 7.71, 7.71, 7.51, 7.21, 6.79, 6.79, 7.4, 7.51, 7.58, 8.05, 8.05, 8.03, 8.47, 8.47, 8.92, 8.92, 8.92, 8.92, 8.86, 7.97, 8.43, 7.52, 7.52, 7.52, 7.06, 6.07, 6.79, 7.47, 7.89, 9.75, 10.43, 12.62, 14.56, 16.3, 16.63, 13.04, 11.2, 11.06, 8.71, 2.68, 0.32, 0.0, 0.0, 0.6, 1.86, 3.53, 7.12, 9.36, 9.72, 8.67, 8.63, 9.54, 9.54, 9.54, 9.54, 6.8, 6.8, 6.8, 6.8, 6.8, 7.01, 7.51, 7.01, 7.01, 7.01, 6.8, 6.8, 6.8, 6.8, 7.2, 7.31, 7.31, 7.31, 7.31, 7.31, 7.31, 7.51, 7.51, 7.93, 7.93, 7.51, 7.51, 7.93, 8.0, 7.93, 7.51, 7.51, 7.51, 7.51, 7.51, 7.31, 7.31, 7.31, 7.51, 7.51, 7.51, 7.51, 7.31, 7.31, 7.2, 7.01, 7.21, 7.21, 7.4, 7.51, 7.58, 7.6, 7.6, 8.05, 8.05, 8.49, 8.49, 8.47, 8.47, 8.92, 8.92, 8.92, 8.42, 8.87, 7.52, 7.52, 7.97, 6.79, 5.75, 6.4, 7.35, 8.14, 9.33, 10.52, 11.62, 12.7, 14.7, 15.74, 15.12, 15.12, 16.72, 16.79, 12.66, 5.16, 1.26, 1.26, 0.57, 1.2, 2.84, 6.0, 8.48, 9.4, 8.48, 7.89, 7.89, 8.4, 8.4, 8.4, 6.8, 6.8, 6.8, 6.8, 6.8, 6.8, 6.8, 7.01, 7.01, 6.8, 6.8, 6.8, 6.8, 6.8, 7.2, 7.2, 7.31, 7.31, 7.31, 7.31, 7.31, 7.31, 7.31, 7.31, 7.51, 7.51, 7.51, 7.51, 7.93, 7.51, 7.51, 7.09, 7.51, 7.51, 7.31, 7.31, 7.31, 7.31, 7.51, 7.51, 7.31, 7.31, 7.2, 6.8, 6.6, 7.01, 7.01, 7.26, 7.26, 7.51, 7.58, 7.6, 7.6, 8.05, 8.05, 8.05, 8.49, 8.49, 8.49, 8.47, 8.47, 8.47, 8.47, 8.03, 8.87, 7.97, 7.97, 6.28, 6.28, 6.4, 7.74, 7.21, 8.4, 9.49, 10.15, 11.2, 12.47, 13.14, 13.14, 13.46, 16.01, 21.43, 19.19, 8.01, 0.53, 0.65, 1.49, 1.84, 2.0, 4.11, 7.64, 6.0, 6.0, 6.44, 6.07, 6.44, 6.44, 6.44, 6.28, 6.28, 6.28, 6.28, 6.8, 6.28, 6.8, 6.8, 6.8, 6.8, 6.8, 6.8, 6.56, 6.56, 6.56, 6.95, 7.2, 7.2, 7.2, 7.2, 7.31, 7.31, 7.31, 7.31, 7.31, 7.51, 7.31, 7.31, 7.51, 7.51, 7.09, 7.09, 7.31, 7.31, 7.31, 7.31, 7.31, 7.31, 7.31, 7.31, 7.31, 6.8, 6.28, 6.28, 6.28, 6.28, 6.8, 7.09, 7.4, 7.51, 7.58, 7.6, 7.6, 8.05, 8.05, 8.05, 8.05, 8.05, 8.05, 8.49, 8.47, 8.47, 8.47, 8.47, 7.97, 8.43, 7.52, 6.28, 6.28, 6.28, 6.79, 6.94, 7.42, 8.63, 9.27, 9.65, 11.26, 12.47, 11.54, 10.86, 13.46, 20.71, 24.43, 12.5, 0.65, -0.7, 1.49, 2.73, 2.88, 4.46, 6.4, 3.45, 3.45, 4.46, 4.46, 4.46, 4.46, 4.46, 6.28, 6.28, 6.28, 6.28, 6.28, 6.28, 6.28, 6.8, 6.8, 6.8, 6.8, 6.8, 6.41, 6.41, 6.41, 6.56, 6.56, 6.95, 6.95, 7.2, 7.2, 7.31, 7.31, 7.31, 7.31, 7.31, 7.31, 7.31, 7.31, 7.01, 7.01, 7.2, 7.31, 7.31, 7.31, 7.31, 6.8, 6.8, 7.2, 7.2, 6.8, 6.28, 6.28, 6.28, 6.28, 6.67, 6.8, 7.26, 7.4, 7.58, 7.58, 7.6, 7.6, 7.6, 7.6, 8.05, 8.05, 8.05, 8.05, 8.05, 8.05, 8.03, 8.03, 7.97, 7.97, 8.43, 6.79, 6.36, 6.79, 5.82, 6.16, 5.82, 7.07, 8.05, 9.03, 9.27, 10.8, 11.83, 10.91, 10.28, 11.54, 16.69, 24.04, 20.09, 4.43, -2.04, 0.0, 2.2, 3.72, 1.9, 1.86, 1.86, 2.4, 2.15, 2.15, 2.4, 2.4, 2.4, 6.28, 6.28, 6.28, 6.28, 6.28, 6.28, 6.28, 6.67, 6.8, 6.8, 6.8, 6.8, 6.67, 6.28, 6.41, 6.41, 6.56, 6.56, 6.56, 6.56, 6.95, 6.95, 6.95, 7.2, 7.2, 7.31, 7.31, 7.2, 6.8, 6.8, 6.8, 7.2, 7.31, 7.31, 7.2, 6.8, 6.8, 6.8, 6.8, 6.8, 6.28, 6.13, 5.75, 6.28, 6.41, 6.8, 7.01, 7.26, 7.51, 7.58, 7.58, 7.58, 7.58, 7.6, 7.6, 7.6, 7.6, 8.05, 8.05, 8.05, 8.05, 8.03, 8.03, 7.97, 7.51, 8.17, 7.21, 6.36, 6.23, 5.75, 5.21, 5.82, 6.44, 8.05, 8.63, 8.67, 9.27, 10.28, 10.29, 9.92, 10.9, 13.49, 18.33, 24.04, 15.14, 0.0, -2.6, 0.0, 1.86, 0.6, 0.6, 0.6, 1.26, 1.26, 1.86, 1.86, 1.86, 1.86, 6.28, 6.28, 6.28, 6.28, 6.28, 6.28, 6.28, 6.67, 6.56, 6.67, 6.67, 6.28, 6.28, 6.28, 6.67, 6.41, 6.41, 6.56, 6.56, 6.56, 6.95, 6.95, 6.95, 6.95, 7.2, 7.2, 7.2, 6.8, 6.8, 6.8, 7.2, 7.2, 7.2, 7.2, 6.8, 6.8, 6.8, 6.8, 6.8, 6.28, 6.13, 6.13, 5.86, 6.41, 6.41, 6.8, 7.21, 6.97, 7.07, 7.58, 7.58, 7.58, 7.58, 7.58, 7.6, 7.6, 7.6, 8.05, 8.05, 8.05, 8.05, 8.03, 7.58, 7.51, 7.07, 7.42, 6.7, 6.28, 4.4, 4.15, 3.2, 2.4, 6.07, 7.07, 8.05, 8.06, 8.67, 8.68, 9.3, 10.29, 10.87, 11.88, 12.52, 20.7, 22.88, 4.02, -1.58, -0.32, -0.0, 0.57, 0.45, 0.0, 0.6, 1.26, 1.26, 1.58, 1.58, 1.58, 6.03, 6.03, 6.03, 6.13, 6.13, 6.28, 6.03, 6.41, 6.41, 6.67, 6.28, 6.28, 6.28, 6.28, 6.28, 6.41, 6.41, 6.41, 6.41, 6.56, 6.95, 6.95, 6.95, 6.95, 6.95, 6.95, 6.95, 6.8, 6.8, 6.8, 7.2, 7.2, 7.2, 7.2, 6.8, 6.8, 6.8, 6.8, 6.67, 6.28, 5.86, 5.86, 6.41, 6.41, 6.8, 7.01, 6.94, 7.07, 7.51, 7.58, 7.58, 7.58, 7.58, 7.15, 7.15, 7.6, 7.6, 7.6, 7.6, 7.6, 7.6, 7.58, 7.58, 7.51, 7.06, 6.51, 6.28, 5.82, 5.43, 5.75, 3.83, 2.8, 2.12, 5.43, 6.08, 7.06, 8.06, 8.03, 9.04, 10.28, 11.2, 10.8, 10.23, 16.29, 26.19, -1.86, -3.51, -2.73, -0.64, 1.36, 2.07, 1.7, 1.34, 1.79, 1.79, 1.79, 1.79, 1.79, 6.03, 6.03, 6.03, 5.86, 5.86, 6.03, 6.41, 6.41, 6.03, 6.28, 6.28, 6.28, 6.28, 6.28, 6.28, 6.41, 6.41, 6.41, 6.41, 6.95, 6.95, 6.95, 6.95, 6.95, 6.95, 6.95, 6.56, 6.41, 6.56, 6.95, 6.95, 6.95, 6.95, 6.56, 6.56, 6.41, 6.41, 6.28, 6.28, 6.28, 5.86, 6.03, 6.41, 6.41, 7.01, 6.79, 6.94, 7.07, 7.51, 7.51, 7.58, 7.58, 7.13, 7.13, 7.13, 7.13, 7.6, 7.6, 7.6, 7.6, 7.6, 7.58, 7.13, 7.13, 6.61, 5.7, 5.59, 5.34, 5.75, 5.82, 5.46, 4.84, 2.86, 1.86, 4.11, 5.77, 7.06, 7.68, 8.67, 10.55, 11.09, 11.09, 10.75, 15.12, 15.18, -0.57, -4.75, -3.55, -1.41, 1.4, 4.37, 4.36, 2.53, 2.84, 2.84, 2.86, 2.86, 2.86, 6.03, 6.03, 5.86, 5.86, 5.86, 6.41, 6.41, 6.03, 6.03, 6.28, 6.13, 6.13, 6.13, 6.28, 6.03, 6.41, 6.41, 6.41, 6.41, 6.56, 6.95, 6.95, 6.95, 6.95, 6.95, 6.95, 6.41, 6.41, 6.95, 6.95, 6.95, 6.95, 6.95, 6.41, 6.41, 6.41, 6.03, 6.03, 6.28, 6.03, 6.03, 6.41, 6.41, 6.8, 6.6, 6.94, 6.97, 7.51, 7.51, 7.51, 7.51, 7.13, 7.13, 7.13, 7.13, 7.13, 7.15, 7.15, 7.6, 7.6, 7.6, 7.13, 7.13, 7.13, 6.68, 5.34, 4.85, 4.38, 5.09, 4.84, 5.43, 6.07, 5.82, 4.81, 3.48, 4.74, 5.69, 7.41, 9.03, 9.9, 10.43, 11.87, 12.74, 24.57, 13.78, -0.65, -4.75, -3.43, -2.66, -0.0, 3.51, 5.52, 4.36, 3.64, 4.65, 5.69, 5.69, 5.69, 5.86, 5.86, 5.86, 5.86, 6.03, 6.41, 6.03, 5.86, 5.86, 6.13, 5.75, 5.75, 6.13, 6.03, 6.03, 6.03, 6.03, 6.41, 6.41, 6.56, 6.95, 6.95, 6.95, 6.7, 6.95, 6.79, 6.41, 6.79, 6.79, 6.95, 6.95, 6.95, 6.41, 6.41, 6.41, 6.03, 5.86, 5.86, 5.86, 6.03, 6.03, 6.41, 6.8, 7.01, 6.79, 7.37, 7.4, 7.4, 7.51, 7.51, 7.07, 7.07, 7.13, 7.13, 7.13, 7.13, 7.13, 7.15, 7.15, 7.15, 7.15, 7.13, 7.13, 6.68, 6.23, 5.34, 3.98, 3.07, 2.17, 3.74, 4.8, 5.2, 5.82, 4.81, 4.11, 4.43, 5.77, 8.05, 9.2, 9.49, 10.01, 11.87, 18.26, 22.78, 11.09, -1.24, -4.46, -3.48, -2.66, -0.69, 2.75, 5.46, 5.21, 4.65, 5.37, 6.06, 6.06, 6.06, 5.86, 5.86, 5.86, 5.86, 5.86, 5.86, 5.86, 5.86, 5.86, 5.75, 5.75, 5.75, 6.13, 6.13, 6.28, 6.28, 6.03, 6.41, 6.41, 6.56, 6.95, 6.95, 6.7, 6.7, 6.95, 6.41, 6.15, 6.51, 6.51, 6.51, 6.51, 6.41, 6.41, 6.41, 6.03, 5.86, 5.86, 5.86, 5.86, 6.03, 6.03, 6.67, 7.01, 7.01, 7.21, 7.26, 7.4, 7.4, 7.4, 7.07, 7.06, 7.06, 7.06, 7.06, 7.13, 7.13, 7.13, 7.15, 7.15, 7.15, 7.15, 7.15, 6.68, 6.68, 6.23, 5.34, 4.44, 3.53, 2.24, 2.6, 3.95, 4.15, 4.8, 4.84, 4.19, 4.22, 4.81, 7.42, 9.49, 9.9, 10.01, 11.87, 18.5, 22.73, 13.21, -0.45, -4.09, -3.22, -2.88, -1.45, 1.44, 5.39, 7.18, 7.02, 6.39, 5.72, 5.72, 5.72, 5.86, 5.86, 5.86, 5.86, 5.86, 5.86, 5.86, 5.86, 5.49, 5.49, 5.49, 5.49, 5.86, 6.13, 6.13, 6.28, 6.03, 6.41, 6.41, 6.41, 6.95, 6.7, 6.7, 6.7, 6.79, 6.15, 6.15, 6.15, 6.51, 6.15, 6.15, 6.41, 6.41, 6.41, 5.86, 5.86, 5.86, 5.86, 5.86, 6.03, 6.28, 6.67, 7.01, 7.01, 7.21, 7.26, 7.4, 7.4, 7.4, 6.97, 7.06, 7.06, 7.06, 7.06, 7.13, 7.13, 7.13, 7.15, 7.15, 7.15, 6.71, 6.71, 6.71, 6.71, 6.23, 5.78, 4.89, 4.44, 3.98, 2.68, 2.17, 3.04, 4.15, 4.22, 4.8, 4.57, 4.57, 6.28, 8.4, 9.75, 9.83, 14.4, 17.15, 22.26, 19.26, 2.68, -2.8, -1.94, -1.94, -2.2, -0.0, 4.96, 8.53, 8.65, 7.33, 7.06, 7.06, 7.06, 5.86, 5.86, 5.86, 5.86, 5.86, 5.86, 5.86, 5.49, 5.49, 5.49, 5.49, 5.49, 5.49, 5.75, 5.86, 6.03, 6.41, 6.41, 6.41, 6.15, 6.51, 6.51, 6.51, 6.41, 6.41, 6.41, 6.15, 6.15, 6.41, 6.41, 6.41, 6.41, 6.41, 6.03, 5.86, 5.86, 5.86, 5.86, 5.86, 6.03, 6.28, 6.28, 7.01, 7.01, 7.21, 7.26, 7.4, 7.4, 7.4, 6.94, 6.94, 7.06, 7.06, 7.06, 7.13, 7.13, 7.13, 7.15, 7.15, 6.71, 6.71, 6.71, 6.71, 6.26, 6.26, 5.81, 4.92, 4.44, 4.44, 2.68, 2.6, 2.17, 3.6, 3.83, 5.2, 5.51, 5.29, 5.75, 7.45, 9.06, 10.93, 13.67, 16.37, 20.42, 23.35, 13.84, 1.86, -0.0, -0.7, -2.0, -1.35, 2.66, 7.59, 8.93, 7.64, 8.03, 8.03, 8.03, 5.86, 5.86, 5.86, 5.86, 5.86, 5.86, 5.86, 5.49, 5.49, 5.49, 5.49, 5.49, 5.49, 5.86, 5.86, 6.03, 6.41, 6.15, 6.15, 6.15, 6.15, 6.41, 6.41, 6.15, 6.15, 6.15, 6.41, 6.41, 6.41, 6.41, 6.41, 6.41, 6.03, 5.86, 5.86, 5.86, 5.86, 5.86, 5.86, 6.28, 6.28, 6.51, 6.6, 6.79, 7.21, 7.26, 7.26, 7.26, 7.37, 6.94, 6.51, 7.06, 7.06, 7.06, 7.13, 7.13, 7.13, 7.15, 6.71, 6.71, 6.71, 6.71, 6.71, 6.26, 5.81, 5.36, 4.92, 4.47, 4.47, 2.68, 2.68, 2.17, 2.12, 4.0, 4.8, 5.75, 5.59, 5.75, 7.11, 9.54, 10.62, 13.32, 16.02, 18.71, 21.33, 18.96, 9.83, 4.46, 1.84, -0.54, -1.61, -0.0, 5.06, 7.68, 7.68, 8.32, 8.32, 8.32, 5.86, 5.86, 5.86, 5.86, 5.86, 5.86, 5.49, 5.49, 5.29, 5.49, 5.49, 5.86, 5.86, 5.86, 5.86, 5.93, 6.15, 6.15, 6.15, 6.41, 6.41, 6.41, 6.15, 6.15, 6.15, 6.15, 6.41, 6.41, 6.41, 6.41, 6.03, 6.03, 5.86, 5.86, 5.86, 5.86, 5.86, 5.86, 6.28, 6.28, 6.51, 6.6, 6.79, 6.79, 7.21, 7.26, 7.26, 7.26, 6.94, 6.94, 6.51, 7.06, 7.06, 7.06, 7.13, 6.68, 6.68, 6.71, 6.71, 6.71, 6.71, 6.71, 6.26, 6.26, 5.81, 5.36, 4.92, 4.92, 4.47, 4.47, 4.02, 2.24, 2.12, 3.47, 4.15, 5.09, 5.75, 6.02, 6.98, 9.06, 11.06, 13.32, 16.07, 18.26, 19.61, 17.44, 11.75, 8.55, 7.54, 1.9, -0.6, -0.6, 1.61, 4.81, 6.7, 8.67, 8.67, 8.67, 5.86, 5.86, 5.86, 5.86, 5.86, 5.86, 5.49, 5.29, 5.29, 5.29, 5.86, 5.86, 5.86, 5.59, 5.59, 5.59, 5.86, 5.86, 5.86, 5.86, 5.93, 6.15, 6.15, 6.15, 5.93, 5.59, 5.86, 5.86, 5.86, 5.86, 5.86, 5.86, 5.86, 5.86, 5.86, 6.13, 6.28, 6.28, 6.28, 6.51, 6.51, 6.6, 6.79, 7.21, 7.26, 7.26, 7.26, 6.79, 6.94, 6.94, 6.51, 7.06, 7.06, 6.61, 6.68, 6.68, 6.68, 6.71, 6.71, 6.71, 6.71, 6.71, 6.26, 6.26, 5.81, 5.36, 4.92, 4.92, 4.47, 4.02, 4.02, 2.24, 2.24, 3.58, 3.47, 4.57, 5.51, 6.07, 7.11, 8.9, 11.15, 13.39, 15.63, 17.81, 18.63, 15.13, 10.4, 9.92, 10.99, 8.24, 1.49, -0.45, 0.4, 2.15, 5.6, 8.0, 8.0, 8.0, 5.86, 5.86, 5.86, 5.86, 5.86, 5.86, 5.29, 5.29, 5.01, 5.35, 5.59, 5.59, 5.86, 5.86, 5.86, 5.86, 5.86, 5.86, 5.86, 5.59, 5.59, 5.59, 5.59, 5.59, 5.59, 5.86, 5.86, 5.86, 5.86, 5.86, 5.86, 5.86, 5.49, 5.75, 6.13, 6.13, 6.28, 6.28, 6.51, 6.51, 6.51, 6.6, 7.01, 7.01, 7.09, 7.21, 6.79, 6.79, 6.94, 6.94, 7.06, 6.61, 6.61, 6.68, 6.68, 6.68, 6.71, 6.71, 6.71, 6.71, 6.71, 6.71, 6.26, 5.81, 5.81, 5.36, 4.92, 4.92, 4.47, 4.02, 4.02, 4.02, 3.58, 4.02, 3.47, 4.15, 5.09, 6.51, 8.01, 8.94, 10.73, 12.94, 14.73, 16.37, 17.0, 13.99, 9.84, 9.92, 12.16, 12.13, 7.42, 1.7, 0.89, 1.7, 3.97, 7.89, 7.89, 7.89, 5.86, 5.86, 5.86, 5.86, 5.86, 5.86, 5.29, 5.29, 5.01, 5.35, 5.59, 5.59, 5.86, 5.86, 5.86, 5.86, 5.86, 5.86, 5.86, 5.59, 5.59, 5.59, 5.59, 5.59, 5.59, 5.86, 5.86, 5.86, 5.86, 5.86, 5.86, 5.86, 5.49, 5.75, 6.13, 6.13, 6.28, 6.28, 6.51, 6.51, 6.51, 6.6, 7.01, 7.01, 7.09, 7.21, 6.79, 6.79, 6.94, 6.94, 7.06, 6.61, 6.61, 6.68, 6.68, 6.68, 6.71, 6.71, 6.71, 6.71, 6.71, 6.71, 6.26, 5.81, 5.81, 5.36, 4.92, 4.92, 4.47, 4.02, 4.02, 4.02, 3.58, 4.02, 3.47, 4.15, 6.02, 6.51, 8.01, 8.94, 10.73, 12.49, 13.77, 15.01, 15.61, 14.17, 10.48, 9.3, 11.53, 13.51, 12.27, 8.05, 3.2, 2.6, 3.58, 7.15, 7.15, 7.15]}, {"header": {"dx": 0.06612293990616946, "dy": 0.0552356325346848, "nx": 98, "ny": 59, "la1": 35.046912555036876, "la2": 31.78801023549047, "lo1": -121.43107172385933, "lo2": -114.95102361305473, "refTime": "2026041305", "parameterCategory": 1, "parameterNumber": 3}, "data": [-3.45, -3.45, -3.45, -3.42, -2.96, -2.96, -2.96, -2.44, -2.29, -1.76, -1.76, -1.12, 0.0, 0.0, 0.0, 0.0, 0.88, 0.82, 1.14, 1.14, 1.14, 1.14, 1.6, 0.83, 0.79, 1.55, 2.47, 2.98, 4.11, 4.74, 4.74, 4.01, 3.22, 1.55, 0.0, -1.8, -2.86, -4.24, -4.41, -4.85, -4.66, -5.21, -5.44, -4.96, -4.4, -3.95, -4.68, -3.85, -2.35, 0.0, 3.11, 3.79, 4.71, 5.38, 5.52, 6.31, 6.09, 6.33, 5.4, 5.51, 5.3, 5.18, 5.76, 5.41, 5.41, 5.3, 5.4, 5.48, 5.45, 5.41, 5.46, 4.62, 3.87, 3.17, 3.14, 3.87, 3.04, 2.11, 1.6, 2.24, 2.24, 1.7, 0.63, 0.0, 0.0, -0.7, -0.82, -0.78, -0.79, -1.54, -2.44, -3.96, -3.87, -4.61, -3.07, 0.0, 2.47, 3.64, -3.42, -3.42, -3.42, -2.96, -2.96, -2.75, -2.26, -2.26, -1.63, -1.76, -1.12, -0.83, 0.0, 0.0, 0.0, 0.0, 0.0, 0.0, 0.0, 0.81, 2.6, 2.6, 2.32, 1.32, 0.78, 1.72, 2.4, 2.3, 3.84, 4.46, 4.74, 4.74, 3.72, 2.3, 0.61, -0.65, -2.4, -3.51, -3.58, -4.02, -4.85, -6.8, -6.32, -5.64, -5.52, -5.51, -4.5, -2.31, 0.0, 2.88, 4.16, 4.46, 4.6, 5.04, 5.52, 5.52, 5.63, 5.51, 5.4, 5.4, 5.3, 5.41, 5.41, 5.18, 4.92, 4.8, 5.4, 5.48, 5.45, 5.51, 5.56, 4.71, 3.83, 3.07, 3.04, 3.04, 3.04, 2.11, 1.6, 2.24, 2.24, 1.7, 0.63, 0.0, 0.0, -0.7, -0.82, -0.78, -0.79, -1.54, -2.44, -3.96, -3.87, -4.61, -3.07, 0.0, 2.47, 3.64, -3.64, -3.42, -2.75, -2.92, -2.92, -2.26, -2.26, -1.73, -1.73, -1.1, -1.2, -0.57, 0.0, 0.0, 0.0, 0.0, 0.0, 0.0, 0.0, 1.3, 1.83, 2.6, 2.32, 2.66, 2.26, 1.49, 1.6, 1.74, 1.58, 2.23, 3.83, 4.84, 5.43, 4.89, 2.79, 0.0, -1.26, -2.24, -3.13, -4.02, -6.55, -7.28, -7.27, -7.18, -6.57, -4.6, -1.65, 0.76, 3.22, 4.16, 4.46, 4.6, 4.6, 4.6, 4.87, 5.38, 5.41, 5.51, 5.4, 5.4, 5.3, 5.52, 5.52, 5.52, 4.71, 4.8, 5.2, 5.29, 5.38, 5.45, 5.51, 4.71, 3.95, 2.33, 1.48, 2.28, 2.37, 2.21, 1.2, 2.24, 2.68, 2.23, 0.71, 0.0, -0.6, -0.79, -0.72, -1.52, -2.18, -3.16, -4.55, -5.28, -5.55, -3.82, 0.0, 2.98, 4.43, 3.55, -3.4, -3.4, -2.92, -2.92, -2.92, -2.23, -2.23, -1.71, -1.73, -1.1, -1.2, -0.57, -0.78, 0.0, 0.0, 0.0, 0.0, 0.0, 0.0, 0.88, 1.66, 1.19, 1.3, 1.72, 2.51, 2.4, 1.41, 0.65, 0.6, 0.89, 1.79, 3.58, 4.87, 4.98, 4.19, 0.87, 0.0, -1.79, -4.02, -5.75, -7.71, -7.07, -6.39, -4.56, -3.2, -0.72, 1.47, 3.11, 3.79, 3.91, 4.14, 3.8, 3.91, 4.46, 4.46, 5.38, 5.18, 5.51, 5.4, 5.4, 5.3, 5.52, 5.28, 5.38, 5.28, 4.92, 5.41, 5.47, 6.36, 6.4, 7.0, 6.24, 4.71, 2.85, 0.67, 0.0, 0.0, 1.6, 1.49, 1.49, 2.24, 2.21, 1.41, 0.0, -0.6, 0.0, -0.79, -2.2, -4.0, -5.29, -5.45, -5.45, -4.65, -0.8, 2.79, 4.46, 2.88, 2.26, -3.6, -3.37, -2.89, -2.89, -2.89, -2.37, -2.23, -1.71, -1.73, -1.1, -1.2, -1.12, -0.78, -0.82, 0.0, 0.0, -0.73, -0.81, 0.0, 0.0, 0.0, 0.0, 0.0, 0.0, 0.0, 1.1, 1.18, 1.19, 0.0, 0.89, 1.79, 2.12, 1.79, 1.98, 0.0, 0.0, 0.0, -0.85, -4.15, -5.75, -4.8, -2.15, 0.0, 0.79, 1.55, 2.4, 3.9, 3.79, 3.91, 3.91, 3.69, 4.03, 4.03, 4.83, 5.21, 5.64, 5.41, 5.51, 6.21, 5.4, 5.41, 5.28, 5.13, 4.96, 5.13, 4.83, 4.83, 6.05, 7.63, 8.72, 8.62, 8.5, 7.91, 5.46, 2.31, 0.0, -0.73, 0.0, 1.88, 1.6, 1.2, 1.49, 1.52, 0.0, 0.0, -0.71, -1.55, -3.06, -5.4, -6.2, -5.55, -4.65, -1.58, 1.9, 4.24, 3.79, 2.04, 0.74, -3.37, -3.37, -2.89, -2.89, -2.89, -2.37, -2.23, -2.23, -1.73, -1.63, -1.76, -1.12, -0.83, -0.82, -0.7, -0.61, -0.81, -0.81, 0.0, 0.0, 0.0, 0.0, 0.0, 0.0, 0.0, 0.0, 0.0, 0.0, 1.13, 1.6, 1.79, 1.79, 0.89, 0.0, -1.55, -0.72, 0.0, -0.82, -2.41, -2.68, -1.34, 0.0, 1.9, 3.07, 4.01, 4.65, 5.3, 5.49, 5.49, 4.46, 4.03, 4.03, 4.56, 5.59, 5.38, 5.52, 5.41, 5.3, 5.4, 5.4, 4.8, 4.71, 4.56, 4.56, 4.83, 5.49, 6.24, 6.88, 7.82, 8.46, 8.62, 9.66, 9.51, 8.75, 6.26, 1.48, -0.61, 0.0, 1.2, 1.7, 0.45, 0.0, 0.0, 0.0, -0.76, -2.88, -4.6, -5.29, -6.09, -5.55, -5.48, -2.35, 2.15, 4.02, 3.74, 2.0, 1.52, 0.78, -3.37, -3.37, -2.89, -2.89, -2.89, -2.37, -2.23, -2.4, -1.73, -1.63, -1.76, -1.65, -1.63, -0.76, -1.23, -0.7, -0.81, -0.88, 0.0, 0.0, 0.0, 0.0, 0.0, 0.0, 0.0, 0.0, 0.0, 0.0, 1.27, 1.74, 1.58, 1.6, 1.26, 0.0, -1.41, -1.41, -1.55, 0.0, -0.98, -1.34, -0.0, 0.6, 0.89, 2.23, 2.95, 4.65, 5.94, 6.42, 6.14, 5.46, 5.2, 4.56, 5.21, 5.49, 5.38, 4.71, 4.6, 3.95, 3.85, 3.76, 3.88, 3.33, 3.72, 4.01, 5.37, 7.02, 7.59, 7.18, 7.08, 7.01, 7.32, 7.27, 7.49, 7.27, 7.17, 5.42, 1.54, 0.0, 0.65, 0.0, 0.0, -0.76, -1.52, -1.54, -3.16, -5.54, -6.77, -6.9, -5.55, -4.55, -3.61, 0.0, 4.02, 5.31, 3.49, 1.47, 0.74, 0.0, -3.56, -3.05, -2.89, -2.89, -2.89, -2.37, -2.23, -2.4, -2.26, -2.26, -2.29, -1.65, -1.72, -1.7, -2.49, -1.55, -1.47, -0.88, 0.0, 0.0, 0.0, 0.0, -0.71, -0.88, 0.0, 0.0, -1.08, 0.0, 0.8, 1.13, 0.0, 0.0, 0.0, -0.96, -2.11, -2.73, -2.79, -2.11, -1.03, -0.71, -0.0, -0.0, -0.0, 1.58, 3.16, 4.43, 5.06, 6.24, 6.88, 6.44, 4.83, 5.59, 5.49, 4.83, 4.5, 3.88, 3.21, 2.28, 2.31, 2.28, 2.26, 2.3, 3.22, 4.81, 7.07, 8.03, 8.53, 6.71, 5.41, 4.75, 4.76, 4.62, 3.96, 3.86, 4.03, 4.22, 4.71, 2.31, 0.8, 0.0, 0.0, -2.12, -3.44, -4.84, -5.63, -6.4, -6.57, -6.21, -4.58, -3.11, 0.0, 2.6, 4.47, 3.74, 2.0, 0.74, 0.0, 0.0, -3.56, -3.56, -2.89, -2.89, -2.89, -2.89, -2.23, -2.4, -2.26, -2.26, -2.29, -2.32, -2.12, -1.6, -1.84, -1.7, -1.83, -1.66, -0.87, 0.0, 0.0, -0.8, -0.8, -1.58, -1.49, -1.08, -0.85, 0.0, 0.0, 0.0, -1.99, -3.48, -3.93, -3.22, -2.0, -1.49, -3.16, -3.22, -2.16, -0.76, 0.0, 0.89, 0.0, 1.79, 2.53, 3.16, 4.74, 5.44, 5.76, 6.14, 6.44, 5.49, 4.6, 3.8, 3.15, 2.23, 1.52, 0.74, 0.81, 0.74, 1.49, 3.2, 4.66, 6.4, 8.05, 8.65, 7.63, 5.99, 3.85, 2.34, 2.33, 2.11, 1.59, 1.44, 1.44, 2.36, 2.3, 2.39, 1.6, 0.73, 0.74, -1.43, -3.53, -5.63, -6.2, -5.68, -4.31, -3.88, -2.75, -0.67, 1.0, 2.6, 2.6, 1.88, 0.7, 0.0, -0.74, 0.0, -3.56, -3.56, -2.89, -2.89, -2.89, -2.89, -2.73, -2.4, -2.26, -2.26, -2.44, -2.77, -2.29, -2.29, -1.7, -1.84, -1.83, -1.8, -1.27, -1.13, -2.23, -2.48, -2.84, -1.58, -2.23, -2.84, -1.9, -1.58, -2.23, -3.49, -3.22, -3.93, -3.2, -1.9, -1.49, -0.76, -2.0, -1.84, -0.87, 0.0, 1.4, 1.58, 0.95, 1.58, 2.21, 2.84, 3.48, 3.47, 4.46, 4.96, 5.38, 5.64, 5.38, 4.71, 3.27, 2.31, 1.49, 0.0, 0.0, 0.0, 3.47, 6.21, 8.24, 7.89, 8.05, 7.27, 6.33, 5.02, 2.76, 0.0, 0.0, -0.72, -0.73, 0.0, 0.0, 0.0, 0.0, 0.0, 0.0, 0.0, 0.0, 0.0, -2.76, -4.17, -2.82, -1.4, -1.4, -1.33, -0.65, 0.0, 1.26, 1.86, 1.26, 0.54, 0.0, 0.0, 0.0, 0.0, -3.56, -3.56, -2.89, -2.89, -2.89, -2.89, -2.73, -2.4, -2.4, -2.26, -2.26, -2.75, -2.75, -2.75, -2.64, -1.63, -1.72, -1.16, -1.7, -1.88, -1.4, -1.66, -1.6, -1.24, -4.29, -2.23, -2.6, -3.35, -4.29, -4.43, -3.22, -1.88, -1.58, -0.57, -1.2, -1.6, -1.99, -0.76, 0.0, 2.2, 3.72, 3.16, 2.21, 2.48, 2.23, 1.86, 1.9, 2.41, 2.98, 3.47, 5.3, 6.95, 7.59, 7.97, 7.35, 6.95, 7.18, 3.22, -0.45, 1.58, 6.26, 8.46, 8.19, 7.89, 8.3, 7.9, 7.9, 6.9, 4.58, 0.75, -0.76, -2.13, -2.89, -2.84, -2.15, -2.12, -2.02, -2.39, -2.35, -2.28, -1.39, 0.0, 1.39, 0.0, 0.0, 0.0, -0.89, -0.89, 0.0, 0.0, 0.63, 0.6, 0.57, 0.0, 0.0, 0.0, 0.0, 0.66, -3.56, -3.56, -3.37, -2.89, -2.89, -2.89, -2.73, -2.92, -2.4, -2.4, -2.26, -2.26, -2.75, -2.92, -2.73, -2.23, -1.73, -1.63, -1.2, -1.2, -1.12, -1.12, -1.14, -1.23, -2.4, -3.49, -3.76, -4.11, -3.48, -2.68, -1.8, -0.7, 0.0, 0.0, -0.7, -1.41, -0.66, 0.61, 1.4, 3.35, 4.01, 4.29, 4.01, 3.45, 2.73, 1.86, 2.21, 3.79, 3.49, 4.74, 5.77, 7.69, 8.93, 10.8, 10.8, 10.87, 11.9, 9.56, 0.6, 1.4, 8.36, 9.7, 8.4, 6.94, 9.2, 10.55, 12.49, 12.72, 11.06, 7.79, 4.92, 2.76, 0.69, -0.75, -3.07, -2.97, -2.35, -2.2, -2.8, -2.11, 0.0, 0.79, 3.2, 3.06, 3.48, 1.58, 0.0, -0.89, -0.63, 0.0, 0.0, 0.0, 0.0, 0.0, 0.0, 0.0, 0.7, 0.66, -3.56, -3.56, -3.37, -2.89, -2.89, -2.73, -2.92, -2.92, -2.92, -2.4, -2.26, -2.26, -2.26, -2.23, -2.89, -2.89, -2.37, -1.71, -1.73, -1.18, -1.09, -1.16, -1.16, -1.09, -1.1, -1.76, -1.76, -2.29, -2.75, -2.26, -1.6, 0.0, 0.0, 0.0, 0.0, 0.0, 0.0, 1.33, 2.15, 2.79, 2.98, 3.11, 3.11, 2.07, 1.24, 0.8, 0.71, 2.2, 3.49, 4.11, 4.46, 6.07, 7.03, 7.98, 9.63, 10.21, 10.73, 12.01, 4.6, 2.24, 9.11, 10.16, 8.82, 7.71, 10.75, 13.23, 14.88, 16.72, 16.11, 16.09, 14.93, 12.57, 9.32, 5.51, 0.0, -1.7, -0.89, -0.45, 0.0, 0.63, 1.2, 1.9, 2.04, 2.9, 5.49, 5.38, 3.27, 0.61, 0.0, 0.0, 0.0, 0.0, 0.0, 0.0, 0.0, 0.0, 0.0, 0.0, -3.56, -3.56, -2.89, -2.89, -2.89, -2.73, -2.92, -2.4, -2.4, -2.4, -2.26, -2.26, -2.26, -2.23, -2.37, -2.21, -2.37, -2.23, -1.73, -1.73, -1.71, -1.69, -1.69, -1.69, -1.78, -1.78, -1.67, -1.67, -1.67, -1.75, -1.75, -0.76, 0.0, 0.0, 0.0, 0.0, 0.7, 1.16, 1.4, 1.33, 1.49, 0.73, 1.05, 1.1, 1.19, 0.0, 0.0, 0.0, 0.0, 1.27, 2.48, 2.48, 2.84, 3.82, 4.24, 3.84, 4.74, 5.6, 5.56, 4.46, 8.63, 11.18, 11.56, 10.7, 10.93, 11.87, 12.66, 13.85, 14.29, 13.46, 15.25, 15.49, 12.56, 9.6, 2.35, -1.74, -0.0, 1.2, 1.7, 2.21, 2.41, 2.4, 2.06, 2.12, 3.4, 4.71, 4.58, 3.69, 2.75, 2.9, 1.45, 0.0, -0.7, -0.81, -0.7, -0.7, 0.0, 0.0, -3.56, -3.37, -2.89, -2.89, -2.73, -2.73, -2.92, -2.4, -2.4, -2.4, -2.26, -2.26, -2.4, -2.23, -2.21, -2.21, -2.37, -2.4, -1.73, -1.73, -1.71, -1.69, -1.69, -1.67, -1.67, -1.75, -1.65, -1.73, -1.71, -1.71, -1.69, -1.79, -1.14, -1.05, 0.0, 0.0, 1.03, 1.16, 2.32, 0.7, 0.73, 0.0, 0.0, 0.0, 0.0, 0.0, 0.0, 0.0, 0.0, 0.0, 0.0, 0.0, 0.0, 0.89, 0.89, 1.58, 0.0, -0.72, 2.15, 6.4, 7.56, 8.49, 9.54, 9.21, 9.54, 10.04, 10.62, 9.67, 8.75, 8.61, 9.66, 9.63, 8.02, 5.72, 3.1, 0.0, 0.6, 1.7, 3.07, 3.0, 2.99, 3.06, 2.21, 2.06, 0.71, 1.49, 3.11, 4.4, 5.0, 4.58, 3.91, 1.39, 0.0, 0.0, 0.0, -0.7, -0.61, -0.61, -3.56, -3.37, -2.89, -2.73, -2.92, -2.92, -2.92, -2.4, -2.4, -2.4, -2.26, -2.26, -2.4, -2.23, -2.21, -2.21, -2.37, -1.71, -1.73, -1.73, -1.71, -1.69, -1.78, -1.67, -1.75, -1.75, -1.73, -1.81, -2.25, -2.23, -2.33, -2.3, -1.76, -1.02, 0.0, 0.0, 0.79, 1.49, 1.18, 0.0, 0.0, 0.0, 0.0, 0.0, 0.0, 0.0, 0.0, 0.0, 0.0, 0.0, 0.0, 0.0, 0.71, 0.6, 0.0, 0.0, -2.73, -3.17, 0.0, 5.37, 4.87, 5.81, 5.7, 6.36, 6.61, 6.79, 6.8, 6.87, 6.98, 5.64, 4.71, 3.65, 3.14, 2.41, 3.9, 5.41, 6.14, 6.31, 4.6, 3.11, 3.16, 3.07, 2.28, 1.54, 0.76, 0.0, 0.74, 2.18, 3.88, 3.85, 3.96, 1.45, 0.73, 0.71, 0.0, 0.0, -0.61, -0.61, -3.56, -3.37, -2.89, -2.92, -2.92, -2.92, -2.92, -2.4, -2.4, -2.4, -2.26, -2.26, -2.4, -2.23, -2.21, -2.21, -2.37, -1.71, -1.73, -1.61, -1.71, -2.21, -1.78, -1.67, -1.75, -2.17, -2.28, -2.25, -2.35, -2.23, -2.33, -2.3, -2.21, -2.1, -0.69, 0.0, 0.0, 0.0, 0.0, 0.0, 0.0, 0.0, 0.0, 0.0, 0.0, 0.0, 0.0, 0.0, 0.0, 0.0, 0.0, 1.14, 2.16, 2.2, 1.08, 0.0, -1.03, -1.01, 1.07, 4.22, 4.74, 4.09, 3.35, 4.24, 4.77, 4.0, 4.46, 4.43, 4.88, 4.48, 2.24, 0.0, 0.0, 1.55, 5.28, 10.12, 11.92, 11.28, 8.5, 5.35, 4.71, 4.46, 3.07, 2.13, 1.6, 0.77, 0.0, 1.41, 2.35, 2.28, 2.06, 1.39, 0.74, 0.67, 0.76, 0.0, 0.0, 0.0, -3.56, -3.37, -2.89, -2.92, -2.92, -2.92, -2.92, -2.4, -2.4, -2.4, -2.4, -2.26, -2.23, -2.37, -2.21, -2.21, -2.37, -1.71, -1.73, -1.71, -1.81, -2.21, -2.33, -1.67, -1.75, -1.75, -2.28, -2.28, -2.25, -2.35, -2.33, -2.33, -2.21, -2.33, -1.71, -1.58, -0.78, -1.1, -1.03, -1.14, -0.96, 0.0, 0.0, 0.0, 0.0, 0.0, 0.0, 0.0, 0.0, 0.0, 1.03, 1.98, 2.12, 2.12, 2.12, 1.1, 0.0, 1.01, 2.09, 3.4, 3.68, 3.76, 3.79, 3.48, 2.84, 1.74, 1.6, 1.3, 1.2, 1.16, 1.13, 0.79, 0.76, 2.28, 5.6, 8.53, 10.25, 10.23, 9.8, 8.6, 6.97, 5.61, 4.75, 2.06, 1.47, 1.63, 0.66, 0.82, 0.76, 1.5, 3.11, 2.41, 0.0, 0.0, 0.7, 1.47, 1.45, 1.45, -3.56, -2.89, -2.89, -2.92, -2.92, -2.92, -2.75, -2.26, -2.4, -2.23, -2.23, -2.23, -2.23, -2.37, -2.21, -2.23, -1.71, -1.71, -1.73, -1.71, -1.81, -2.21, -2.21, -1.65, -1.55, -1.01, -2.23, -2.31, -2.31, -2.3, -2.77, -2.23, -2.33, -2.33, -2.33, -2.23, -2.35, -2.93, -2.31, -2.12, -1.35, -0.81, -0.96, -1.18, -1.1, 0.0, 0.0, 0.0, 0.0, 0.0, 1.03, 1.1, 2.12, 2.26, 2.4, 2.09, 1.07, 1.07, 2.09, 2.09, 3.4, 3.45, 4.02, 2.3, 1.6, 1.98, 1.8, 0.82, 0.0, 0.0, 1.11, 3.18, 3.18, 3.14, 3.14, 3.21, 3.07, 3.13, 4.82, 6.31, 5.6, 3.92, 2.4, 1.41, 1.52, 1.47, 0.66, 0.7, 0.0, 0.74, 1.54, 2.31, 0.0, 0.0, 1.2, 2.3, 2.29, 2.29, -3.05, -2.89, -2.89, -2.73, -2.92, -2.75, -2.26, -2.26, -2.26, -2.23, -2.23, -2.23, -2.23, -2.37, -2.21, -1.69, -1.81, -1.71, -1.65, -1.55, -1.52, -1.71, -2.37, -2.26, -1.63, -1.41, -1.63, -2.37, -2.19, -2.3, -2.28, -2.77, -2.9, -2.23, -2.33, -2.87, -2.87, -2.87, -2.23, -2.25, -1.73, -1.75, -1.67, -1.14, -1.16, 0.0, 0.0, 0.0, 0.0, 0.0, 0.0, 1.1, 1.1, 1.18, 0.73, 1.35, 2.21, 1.35, 1.7, 2.4, 3.4, 3.68, 3.45, 2.32, 2.3, 1.6, 1.66, 1.52, 0.8, 0.82, 2.37, 3.18, 3.19, 1.58, 0.0, -2.22, -3.11, -3.07, 0.77, 3.06, 3.11, 3.13, 2.31, 1.5, 0.74, 0.59, 0.61, 1.41, 0.0, 0.0, -0.74, 0.0, 0.0, 0.61, 1.86, 2.15, 2.2, 2.2, -3.05, -2.89, -2.89, -2.73, -2.92, -2.26, -2.26, -2.26, -2.26, -2.23, -2.23, -2.23, -2.23, -2.37, -2.21, -2.33, -1.69, -2.37, -2.23, -1.65, -1.52, -1.73, -1.69, -2.33, -2.33, -2.33, -2.33, -2.3, -2.3, -2.28, -2.8, -2.93, -2.77, -2.9, -2.9, -2.9, -2.75, -2.33, -2.33, -2.33, -1.69, -1.79, -1.71, -1.73, -1.75, -1.11, -1.07, 0.0, 0.0, 0.0, 0.0, 0.0, 0.0, 0.0, 1.01, 0.73, 1.47, 1.35, 2.26, 2.26, 2.26, 2.32, 2.16, 1.3, 1.24, 1.26, 1.4, 2.47, 3.15, 3.78, 4.06, 4.71, 4.93, 0.79, -3.83, -7.01, -8.43, -7.01, -4.71, -1.54, 0.0, 1.6, 3.09, 2.85, 1.52, 0.61, 0.65, 0.66, 0.67, -0.69, -3.2, -2.35, 0.0, 1.2, 1.86, 1.84, 2.04, 2.04, -3.05, -2.89, -2.89, -2.73, -2.4, -2.4, -2.26, -2.26, -2.23, -2.23, -2.37, -2.37, -2.37, -2.37, -2.21, -2.33, -1.78, -2.21, -2.21, -2.37, -1.81, -1.69, -1.78, -2.19, -2.3, -2.17, -2.28, -2.28, -2.28, -2.93, -2.93, -2.93, -2.93, -2.77, -2.77, -2.9, -2.9, -2.9, -2.9, -2.35, -2.35, -2.35, -2.25, -2.25, -2.28, -2.3, -1.05, -1.07, -1.18, 0.0, 0.0, 0.0, 0.0, 0.0, 0.0, 1.18, 1.35, 1.52, 1.07, 0.0, 0.81, 0.76, 0.65, 0.8, 1.26, 1.58, 1.49, 3.35, 4.65, 6.95, 7.95, 8.68, 9.55, 4.95, -8.14, -9.19, -9.83, -9.5, -9.2, -7.19, -3.95, 0.0, 2.3, 3.87, 3.68, 2.4, 0.59, 0.0, 0.0, -0.71, -2.72, -1.16, 0.0, 1.4, 1.2, 1.33, 1.47, 1.47, -2.89, -2.89, -2.89, -2.73, -2.23, -2.23, -2.23, -2.23, -2.23, -2.37, -2.37, -2.37, -2.37, -2.37, -2.37, -1.69, -1.78, -2.33, -2.33, -2.21, -2.21, -2.33, -2.3, -2.3, -2.28, -2.28, -2.39, -2.25, -2.25, -2.77, -2.77, -2.93, -2.93, -2.93, -2.93, -2.93, -2.93, -2.93, -2.93, -2.77, -2.77, -2.77, -2.39, -2.28, -2.28, -2.3, -2.28, -2.21, -1.18, -1.18, -1.1, -1.1, 0.0, 0.0, 0.0, 0.0, 1.6, 2.4, 1.18, 0.0, 0.0, 0.0, 0.76, 1.26, 2.12, 1.86, 2.23, 3.22, 4.6, 6.4, 7.81, 7.96, 9.3, 2.04, -5.93, -7.15, -7.85, -9.05, -10.0, -10.04, -7.46, -3.87, 0.0, 1.51, 2.97, 2.93, 0.79, 0.0, 0.0, 2.23, 0.0, -0.6, 0.0, 0.53, 0.61, 0.59, 0.63, 0.63, -2.89, -2.89, -2.89, -2.89, -2.23, -2.23, -2.23, -2.23, -2.37, -2.37, -2.37, -2.37, -2.37, -2.37, -2.37, -1.69, -1.67, -2.3, -2.33, -2.33, -2.33, -2.33, -2.3, -2.42, -2.8, -2.8, -2.93, -2.77, -2.9, -2.9, -2.9, -2.77, -2.77, -2.93, -2.93, -2.93, -2.93, -2.93, -2.93, -2.93, -2.93, -2.8, -2.8, -2.8, -2.8, -2.83, -2.13, -2.33, -2.4, -2.4, -1.18, -1.18, -1.1, 0.0, 0.0, 0.0, 0.81, 1.73, 2.09, 0.0, -0.85, -1.0, 1.0, 2.12, 2.12, 2.6, 2.21, 4.29, 3.6, 3.58, 2.29, 2.19, 6.95, 8.02, 0.0, -5.7, -6.26, -7.97, -10.52, -11.03, -9.19, -6.17, -2.82, -1.39, 0.0, 0.0, 0.0, 0.0, 2.29, 6.01, 3.11, 0.65, 0.0, 0.0, 0.0, 0.0, 0.59, 0.59, -2.89, -2.89, -2.89, -2.89, -2.89, -2.89, -2.37, -2.37, -2.37, -2.37, -2.37, -2.21, -2.21, -2.37, -2.37, -2.21, -2.19, -2.3, -2.3, -2.33, -2.33, -2.33, -2.3, -2.97, -2.8, -2.8, -2.93, -2.77, -2.9, -2.9, -2.9, -2.77, -2.77, -2.93, -2.93, -2.93, -2.93, -2.93, -2.93, -2.93, -2.8, -2.8, -2.28, -2.28, -2.28, -2.8, -2.42, -2.3, -2.21, -2.21, -1.71, -1.05, -1.07, 0.0, 0.0, 0.0, 0.0, 0.76, 1.07, 2.26, 0.0, 0.0, 0.45, 1.7, 2.23, 2.23, 2.86, 2.86, 3.48, 0.0, -0.75, 0.0, 4.51, 10.26, 7.27, 0.0, -2.68, -4.47, -8.94, -10.7, -10.37, -7.95, -5.46, -4.15, -2.37, -1.55, 0.0, 2.88, 5.05, 7.46, 8.27, 4.8, 1.36, 0.0, 0.0, 0.53, 1.84, 1.84, -2.89, -2.89, -2.89, -2.89, -2.89, -2.89, -2.89, -2.37, -2.37, -2.37, -2.21, -2.21, -2.21, -2.37, -2.21, -2.33, -2.3, -2.3, -2.3, -2.33, -2.33, -2.19, -2.3, -2.42, -2.8, -2.8, -2.93, -2.93, -2.9, -2.9, -2.9, -2.77, -2.93, -2.93, -2.93, -2.93, -2.93, -2.93, -2.93, -2.39, -2.28, -2.28, -2.28, -2.28, -2.28, -2.28, -2.39, -2.39, -2.28, -2.28, -1.73, -1.75, -1.11, 0.0, 0.0, 0.0, 0.0, 0.0, 0.0, 1.25, 2.12, 0.0, 1.26, 0.95, 1.58, 1.86, 2.21, 3.79, 2.51, 0.8, 0.0, 0.0, 3.16, 7.46, 11.11, 9.87, 0.69, -4.92, -4.87, -8.49, -10.73, -8.76, -6.95, -5.62, -4.15, -2.21, 1.52, 5.46, 6.07, 6.64, 6.68, 6.87, 3.47, 1.4, 0.61, 1.88, 2.79, 2.79, -2.89, -2.89, -2.89, -2.89, -2.89, -2.89, -2.89, -2.89, -2.37, -2.37, -2.21, -2.21, -2.21, -2.21, -2.21, -2.33, -2.83, -2.83, -2.3, -2.33, -2.19, -2.3, -2.3, -2.28, -2.8, -2.8, -2.93, -3.45, -3.45, -3.45, -2.93, -2.93, -2.93, -2.93, -2.93, -2.8, -2.8, -2.8, -2.8, -2.39, -2.39, -2.39, -2.25, -2.25, -2.25, -2.25, -2.25, -2.25, -2.25, -2.25, -1.71, -1.71, -1.1, -1.18, -0.79, 0.0, 0.0, 0.0, 0.0, 0.0, 1.07, 1.52, 1.08, 0.99, 2.23, 1.9, 3.48, 3.47, 3.09, 2.35, 1.56, 0.8, 2.3, 5.42, 8.2, 10.92, 8.23, -1.41, -5.16, -4.87, -7.6, -9.28, -8.49, -6.62, -4.87, -0.59, 2.84, 6.07, 6.44, 6.07, 5.06, 4.87, 4.61, 3.02, 2.04, 2.73, 3.32, 3.32, -2.89, -2.89, -2.89, -2.89, -2.89, -2.89, -2.89, -2.89, -2.89, -2.37, -2.21, -2.21, -2.21, -2.21, -2.33, -2.83, -2.97, -2.3, -2.19, -2.33, -2.19, -2.3, -2.28, -2.28, -2.8, -2.93, -2.93, -2.93, -3.45, -3.3, -3.3, -2.8, -2.8, -2.8, -2.8, -2.8, -2.8, -2.8, -2.8, -2.8, -2.93, -2.93, -2.93, -2.39, -2.39, -2.39, -2.25, -2.25, -2.25, -1.71, -1.71, -1.71, -1.71, -1.71, -1.16, -0.76, -1.05, 0.0, 0.0, 0.0, 0.74, 0.84, 0.78, 0.79, 2.53, 3.79, 3.22, 2.29, 1.63, 2.35, 1.52, 0.0, 0.0, 0.0, 2.39, 2.4, 5.81, 3.89, -1.2, -3.04, -3.13, -7.51, -8.22, -5.72, -1.4, 1.24, 4.93, 5.43, 5.43, 4.65, 4.65, 4.5, 5.55, 4.77, 3.53, 3.6, 3.33, 3.33, -3.37, -3.37, -2.89, -2.89, -2.89, -2.89, -2.89, -2.89, -2.89, -2.37, -2.21, -2.21, -2.21, -2.86, -2.86, -2.83, -2.97, -2.3, -2.19, -2.19, -2.3, -2.3, -2.8, -2.8, -2.8, -2.8, -2.8, -2.8, -2.8, -2.8, -2.97, -2.97, -2.97, -2.97, -2.97, -2.97, -2.97, -2.97, -2.8, -2.8, -2.8, -2.93, -2.8, -2.35, -1.52, -1.75, -2.28, -2.28, -2.28, -2.25, -1.71, -1.71, -1.71, -1.71, -1.71, -1.73, -1.04, -1.14, 0.0, 0.0, 0.0, 0.0, 0.82, 1.8, 3.16, 4.01, 3.33, 1.72, 0.0, 0.0, 0.0, 0.0, -0.79, -3.01, -4.62, -4.63, -1.6, 3.22, 2.39, -1.6, -2.24, -4.44, -4.4, -1.84, 1.2, 4.12, 5.09, 3.79, 3.9, 3.79, 3.79, 4.6, 5.4, 5.63, 5.02, 4.23, 3.53, 3.53, -3.37, -3.37, -3.37, -2.89, -2.89, -2.89, -2.89, -2.89, -2.89, -2.37, -2.37, -2.86, -2.86, -2.86, -2.83, -2.83, -2.83, -2.3, -2.19, -2.3, -2.3, -2.83, -2.97, -2.8, -2.8, -2.8, -2.8, -2.8, -2.8, -2.97, -2.97, -2.97, -2.97, -2.97, -2.83, -2.83, -2.97, -2.97, -2.97, -2.8, -2.97, -2.97, -2.97, -2.3, -2.19, -1.58, -1.49, -2.33, -2.3, -2.28, -2.28, -2.28, -1.71, -1.71, -1.71, -1.73, -1.16, -1.12, -0.79, -0.78, 0.0, 0.0, 0.76, 1.8, 3.35, 3.47, 4.03, 2.21, 0.0, -2.4, -1.62, 0.0, 0.0, -2.4, -7.08, -7.82, -6.17, -3.09, 0.79, 0.0, -1.84, -2.91, -1.2, 0.51, 3.22, 4.02, 4.67, 4.87, 4.37, 4.37, 4.37, 4.71, 5.6, 6.28, 6.12, 5.71, 4.24, 4.24, -3.6, -3.6, -3.6, -3.4, -2.73, -2.89, -2.89, -2.73, -2.73, -2.89, -2.89, -2.86, -2.86, -3.52, -3.01, -2.83, -2.3, -2.19, -2.19, -2.3, -2.3, -2.83, -2.97, -2.97, -2.97, -2.97, -2.97, -2.97, -2.83, -2.83, -2.83, -2.83, -2.83, -2.83, -2.83, -2.83, -2.83, -2.97, -2.97, -2.83, -2.83, -2.3, -2.3, -2.3, -2.83, -2.31, -1.55, -1.69, -2.33, -2.3, -1.65, -1.75, -1.75, -1.73, -1.73, -1.73, -1.73, -1.75, -1.2, -0.76, -0.84, 0.0, 0.82, 1.55, 2.3, 1.66, 2.47, 3.14, 1.11, -1.25, -2.26, -0.82, 0.0, 0.0, -3.09, -6.87, -6.24, -5.63, -3.95, -0.76, -1.36, -1.27, 0.0, 1.05, 2.75, 4.44, 5.69, 5.62, 4.87, 4.2, 4.28, 4.96, 5.54, 6.2, 6.42, 6.24, 5.55, 5.55, -3.6, -3.6, -3.4, -3.4, -3.4, -2.92, -2.92, -2.92, -2.73, -2.89, -2.86, -2.86, -2.86, -2.86, -2.86, -2.19, -2.19, -2.19, -2.19, -2.3, -2.3, -2.83, -2.97, -2.97, -2.97, -2.97, -2.97, -2.83, -3.21, -2.33, -2.83, -2.83, -2.83, -2.83, -2.83, -2.83, -2.83, -2.83, -2.83, -2.3, -2.3, -2.3, -2.83, -2.83, -2.97, -2.8, -2.3, -1.75, -1.75, -1.75, -1.75, -1.75, -1.75, -1.75, -1.75, -1.75, -1.75, -1.12, -1.75, -1.12, -0.8, 0.0, 0.78, 0.76, 0.73, 0.0, -0.79, 0.0, 0.0, 0.0, -0.83, -1.65, 0.0, 1.09, 0.77, -2.11, -3.58, -3.84, -4.71, -2.76, 0.0, 0.0, 0.0, 0.56, 2.4, 4.0, 5.23, 5.14, 4.58, 4.12, 4.07, 4.07, 4.12, 5.02, 6.42, 6.34, 5.81, 5.81, -3.4, -3.4, -3.4, -3.4, -3.4, -3.4, -2.92, -2.92, -2.89, -2.89, -2.86, -2.86, -2.86, -2.86, -2.33, -2.33, -2.19, -2.19, -2.3, -2.3, -2.3, -2.83, -2.83, -2.83, -2.83, -2.83, -2.83, -2.83, -2.86, -2.35, -2.21, -2.86, -2.86, -2.69, -2.83, -2.83, -2.83, -2.69, -2.33, -2.33, -2.86, -2.83, -2.83, -2.83, -2.83, -2.97, -2.28, -2.17, -1.75, -1.75, -1.75, -1.75, -1.75, -1.75, -1.75, -1.12, -1.12, -1.12, -1.12, -1.11, -0.59, 0.74, 1.07, 0.82, 0.0, 0.0, -2.4, -3.11, -2.33, 0.0, 0.84, 0.0, 0.0, 1.6, 3.19, 1.48, -0.95, -1.26, -2.04, -2.12, 0.0, 0.69, 1.36, 1.32, 2.4, 2.86, 3.42, 3.99, 3.91, 2.9, 3.09, 2.82, 2.69, 2.82, 3.53, 5.41, 5.02, 5.02, -3.4, -3.4, -3.6, -3.6, -3.4, -3.4, -3.4, -3.4, -3.37, -3.56, -3.56, -2.86, -2.71, -2.21, -2.33, -2.33, -2.33, -2.33, -2.19, -2.3, -2.3, -2.83, -2.83, -2.83, -2.83, -2.83, -2.83, -2.83, -2.83, -2.33, -2.33, -2.33, -2.33, -2.33, -2.86, -2.86, -2.86, -2.33, -2.33, -2.86, -2.86, -3.01, -2.83, -2.83, -2.83, -2.83, -2.3, -2.3, -1.75, -1.75, -1.75, -1.75, -1.75, -1.75, -1.67, -1.12, -0.56, -0.56, -0.56, 0.0, 0.0, 0.0, 1.07, 0.0, 0.0, 0.0, -0.78, -1.52, 0.0, 1.2, 4.0, 3.52, 2.23, 1.54, 3.13, 4.77, 2.99, 0.76, 0.0, -0.7, -0.73, 0.0, 2.0, 3.51, 3.33, 2.83, 2.35, 2.33, 2.17, 2.2, 1.8, 2.47, 2.06, 1.4, 1.39, 4.17, 4.31, 4.31, -3.6, -3.6, -3.6, -3.6, -3.4, -3.4, -3.4, -3.6, -3.37, -3.56, -3.37, -2.89, -2.37, -2.37, -2.21, -2.33, -2.33, -2.33, -2.33, -2.83, -2.83, -2.83, -2.83, -2.83, -2.83, -2.83, -2.83, -2.86, -2.83, -2.83, -2.69, -2.33, -2.33, -2.86, -2.86, -2.86, -2.71, -2.71, -2.86, -2.86, -2.86, -2.86, -2.86, -2.86, -2.86, -2.33, -2.19, -2.19, -1.67, -1.75, -1.75, -1.75, -1.67, -1.67, -1.12, -0.56, 0.0, 0.0, 0.0, 0.0, 0.0, 0.0, 0.0, 0.0, 0.0, 0.0, 0.83, 1.55, 2.4, 4.83, 5.7, 5.86, 3.36, 2.39, 2.37, 3.86, 5.51, 3.91, 1.51, 0.0, -0.67, 0.0, 1.23, 2.72, 3.7, 2.93, 1.73, 0.74, 1.27, 1.84, 1.84, 1.84, 1.6, 1.32, 0.71, 1.4, 2.82, 2.82, -3.6, -3.6, -3.6, -3.6, -3.4, -3.4, -3.6, -3.81, -3.81, -3.37, -2.89, -2.73, -2.23, -2.37, -2.21, -2.86, -2.86, -2.86, -2.86, -3.01, -2.83, -2.83, -2.83, -2.83, -2.83, -3.01, -2.86, -2.86, -2.86, -2.86, -2.86, -2.86, -2.86, -2.86, -2.86, -2.86, -2.89, -2.89, -2.86, -2.86, -2.86, -2.86, -2.86, -2.33, -2.33, -2.33, -2.33, -2.33, -2.33, -2.33, -2.33, -2.33, -1.78, -1.78, -1.12, -0.56, 0.0, 0.0, 0.0, 0.0, 0.0, 0.0, 0.0, 0.0, 0.74, 1.07, 1.63, 2.4, 3.27, 4.12, 4.6, 3.85, 3.32, 2.28, 0.8, 1.51, 3.82, 3.95, 3.14, 1.45, 0.7, 0.0, 0.0, 0.0, 1.47, 2.0, 1.45, 0.59, 1.2, 1.61, 1.61, 2.07, 2.29, 1.63, 1.36, 1.47, 2.06, 2.06, -3.6, -3.6, -3.6, -3.6, -3.6, -3.6, -3.81, -3.81, -3.37, -3.6, -2.92, -2.92, -2.73, -2.89, -2.71, -2.86, -2.86, -2.86, -2.86, -2.86, -3.01, -3.01, -3.01, -3.01, -2.86, -2.86, -2.86, -2.86, -2.86, -2.86, -2.86, -2.86, -2.86, -2.86, -2.86, -2.89, -2.89, -2.89, -2.86, -2.86, -2.86, -2.86, -2.89, -2.4, -2.23, -2.21, -2.21, -2.33, -2.33, -2.33, -2.33, -2.21, -1.69, -1.14, -0.56, 0.0, 0.0, 0.0, 0.0, 0.56, 0.56, 0.56, 0.0, 0.0, 0.79, 1.14, 1.63, 2.26, 2.51, 1.55, 1.67, 2.31, 2.2, 3.37, 1.5, 0.0, 0.0, 0.0, 0.78, 2.14, 3.6, 0.89, -0.89, -1.2, 0.0, 0.63, 1.36, 1.27, 1.88, 1.61, 1.61, 1.8, 1.94, 1.58, 1.6, 0.7, 0.67, 1.45, -3.6, -3.6, -3.6, -3.6, -3.6, -3.37, -3.37, -3.37, -3.37, -3.4, -2.92, -2.92, -2.73, -2.89, -2.89, -2.89, -2.86, -2.86, -2.86, -2.86, -2.86, -2.86, -2.86, -2.86, -2.86, -2.86, -2.86, -2.86, -2.86, -2.86, -2.86, -2.86, -3.35, -2.86, -2.86, -2.89, -2.89, -2.89, -2.86, -2.86, -2.86, -2.86, -2.89, -1.55, -1.84, -2.37, -2.89, -2.89, -2.89, -2.89, -2.37, -1.69, -1.14, -0.57, 0.0, 0.0, 0.0, 0.0, 0.56, 0.56, 0.56, 0.56, 1.11, 0.74, 0.79, 1.14, 2.21, 2.51, 2.26, 1.55, 1.65, 2.39, 3.41, 3.9, 4.75, 0.78, -2.29, -3.11, -1.38, 1.45, 2.8, 1.6, -0.63, -1.7, -1.34, 0.0, 1.27, 2.0, 2.51, 1.84, 1.13, 1.27, 1.3, 0.78, 0.76, 0.0, 0.0, 0.67, -3.6, -3.6, -3.6, -3.6, -3.37, -3.37, -3.37, -3.37, -3.6, -2.92, -2.75, -2.92, -2.89, -2.89, -2.89, -2.89, -2.89, -2.86, -2.86, -2.86, -2.86, -2.86, -2.86, -2.86, -2.86, -2.86, -2.86, -2.86, -2.86, -2.86, -2.86, -3.35, -3.35, -2.89, -2.89, -2.89, -2.89, -2.89, -3.05, -2.86, -2.86, -2.89, -2.89, -2.23, -2.26, -2.23, -2.89, -2.73, -2.73, -2.37, -2.37, -1.69, -0.57, 0.0, 0.0, 0.0, 0.56, 0.59, 0.56, 0.56, 1.11, 1.18, 1.14, 1.05, 1.14, 1.07, 1.63, 1.63, 2.4, 2.4, 2.54, 2.35, 3.47, 4.47, 7.8, 4.75, 0.0, -3.2, -2.26, 0.0, 1.34, 0.57, -0.0, -0.71, -1.26, -0.32, 0.54, 2.07, 1.94, 2.2, 0.63, 0.0, 0.0, 0.0, 0.0, 0.0, 0.0, 0.0, -3.6, -3.6, -3.4, -3.4, -3.37, -3.37, -3.37, -2.89, -2.73, -2.92, -3.4, -3.4, -3.4, -3.37, -2.89, -2.89, -2.89, -3.05, -2.86, -2.86, -2.86, -2.86, -2.86, -2.86, -2.86, -2.86, -2.86, -2.86, -2.86, -2.86, -3.35, -3.35, -2.89, -2.89, -2.89, -2.89, -2.89, -2.89, -3.05, -3.05, -2.89, -2.89, -2.89, -2.89, -2.89, -2.4, -2.92, -2.75, -2.4, -2.23, -1.71, -1.07, 0.0, 0.0, 0.0, 0.56, 0.56, 0.59, 0.56, 1.11, 1.11, 1.12, 1.04, 1.14, 1.07, 1.07, 1.52, 1.25, 1.63, 2.4, 2.31, 2.35, 3.39, 4.43, 7.88, 8.87, 5.45, 1.5, 0.0, 0.79, 0.54, 0.0, -0.0, -0.0, -0.0, -0.45, 0.0, 0.0, 0.7, 0.76, 0.0, 0.0, -0.69, -1.56, -1.58, -0.76, -0.76, -0.76, -3.4, -3.4, -3.4, -3.4, -3.4, -3.37, -2.89, -2.89, -2.73, -2.92, -3.4, -3.4, -3.4, -3.6, -3.37, -3.37, -3.37, -3.37, -3.37, -3.05, -3.05, -2.86, -2.86, -2.86, -2.86, -2.86, -2.86, -2.86, -2.86, -2.86, -3.35, -2.89, -2.89, -2.89, -2.89, -2.89, -3.37, -3.37, -2.89, -2.89, -2.89, -2.89, -2.89, -3.56, -3.56, -2.89, -2.4, -2.26, -2.26, -1.71, -1.16, -0.54, 0.0, 0.0, 0.57, 0.56, 0.56, 0.59, 0.59, 0.56, 0.56, 1.18, 1.14, 1.05, 1.07, 1.07, 1.07, 1.18, 1.52, 2.26, 2.99, 3.15, 3.25, 4.01, 5.73, 7.84, 9.32, 8.71, 6.9, 5.6, 4.84, 2.01, 0.0, -0.32, 0.0, -0.45, -1.2, -1.24, -0.59, -0.71, -0.72, -1.5, -2.17, -2.35, -2.39, -2.39, -2.39, -2.39, -3.4, -3.4, -3.4, -3.4, -3.4, -2.92, -2.89, -2.92, -2.92, -2.92, -3.4, -3.4, -3.4, -3.4, -3.6, -3.37, -3.37, -3.37, -3.37, -3.37, -3.37, -2.89, -2.89, -3.05, -3.05, -2.89, -2.89, -3.05, -2.86, -3.05, -2.89, -2.89, -2.89, -2.89, -2.89, -3.37, -3.37, -3.37, -2.89, -2.89, -2.89, -2.89, -3.37, -3.37, -3.6, -2.92, -2.4, -2.4, -1.71, -1.16, -0.54, 0.0, 0.0, 0.0, 0.0, 0.0, 0.0, 0.56, 0.56, 0.59, 0.59, 0.59, 1.12, 1.11, 1.07, 1.07, 1.14, 2.26, 2.47, 3.2, 3.27, 2.44, 3.11, 3.76, 4.65, 5.55, 8.51, 10.23, 11.14, 11.14, 10.35, 8.4, 2.81, -1.47, -1.26, -1.26, -1.7, -2.4, -2.84, -3.0, -2.83, -2.89, -2.83, -3.15, -3.15, -3.06, -3.06, -3.06, -3.4, -3.4, -3.4, -3.4, -3.4, -3.4, -3.4, -2.92, -2.92, -3.4, -3.4, -3.4, -3.4, -3.4, -3.6, -3.6, -3.37, -3.37, -3.37, -3.37, -3.37, -3.37, -3.37, -3.37, -2.89, -2.89, -2.89, -2.89, -3.05, -2.89, -2.89, -2.73, -2.89, -2.89, -3.37, -3.37, -3.37, -3.37, -2.89, -2.89, -3.37, -3.37, -3.6, -3.4, -2.75, -2.92, -2.92, -2.23, -2.23, -1.16, -0.54, 0.0, 0.0, 0.0, 0.0, 0.0, 0.0, 0.0, 0.0, 0.56, 0.56, 0.56, 0.56, 0.57, 1.11, 1.14, 1.14, 2.35, 2.35, 3.2, 2.21, 2.4, 3.06, 3.95, 4.68, 5.6, 7.01, 8.5, 10.05, 11.08, 13.61, 13.78, 9.6, 0.73, -2.63, -2.6, -2.23, -3.07, -4.0, -4.11, -5.46, -3.0, -3.0, -4.03, -3.79, -4.03, -4.03, -4.03, -3.42, -3.42, -3.42, -3.42, -3.4, -3.42, -3.4, -3.4, -3.4, -3.4, -3.4, -3.4, -3.83, -3.83, -3.83, -4.05, -3.6, -3.6, -3.6, -3.6, -3.37, -3.37, -3.37, -3.37, -3.37, -2.89, -3.37, -3.37, -2.89, -2.89, -2.73, -2.73, -3.37, -3.37, -3.37, -3.37, -3.37, -3.37, -3.37, -3.37, -3.37, -3.4, -3.42, -3.42, -3.42, -3.42, -3.4, -2.73, -1.71, -1.16, -0.58, 0.0, 0.0, 0.0, 0.0, 0.0, 0.0, 0.0, 0.0, 0.0, 0.56, 0.56, 0.56, 0.56, 1.14, 1.05, 1.07, 2.35, 2.35, 2.35, 2.26, 3.09, 4.12, 4.71, 5.41, 5.63, 6.43, 7.01, 8.46, 9.31, 11.08, 13.25, 13.09, 6.95, -2.6, -4.87, -3.74, -4.09, -5.05, -6.7, -3.2, -2.07, -2.07, -2.98, -2.98, -2.98, -2.98, -2.98, -3.42, -3.42, -3.42, -3.42, -3.42, -3.42, -3.42, -3.4, -3.4, -3.4, -3.4, -3.4, -4.08, -4.08, -4.08, -3.83, -3.83, -4.05, -4.05, -3.6, -3.6, -3.37, -3.37, -3.37, -3.37, -3.37, -3.37, -3.37, -3.37, -2.92, -2.92, -3.6, -3.37, -3.37, -3.37, -3.37, -3.4, -3.4, -3.6, -3.6, -3.4, -3.42, -3.42, -3.42, -3.42, -3.64, -3.4, -2.23, -1.71, -0.58, -0.58, 0.0, 0.0, 0.0, 0.0, 0.0, 0.0, 0.0, 0.0, 0.0, 0.0, 0.57, 0.57, 1.14, 1.14, 1.05, 2.26, 2.12, 2.26, 3.33, 2.64, 4.16, 4.71, 4.83, 4.92, 5.41, 5.4, 6.31, 7.79, 7.9, 8.46, 9.54, 12.88, 13.39, 0.63, -5.44, -4.02, -4.4, -4.46, -1.9, -1.24, -1.24, -1.2, -1.61, -1.61, -1.2, -1.2, -1.2, -3.42, -3.42, -3.42, -3.42, -3.42, -3.42, -3.42, -3.64, -3.4, -3.4, -3.4, -3.4, -3.64, -3.42, -4.08, -4.08, -3.83, -3.83, -3.83, -3.83, -4.05, -4.05, -4.05, -3.6, -3.6, -3.37, -3.37, -3.6, -3.4, -3.4, -3.4, -3.6, -3.37, -3.37, -3.6, -3.4, -3.4, -3.4, -3.4, -3.4, -3.42, -3.68, -3.45, -3.42, -4.08, -3.4, -2.92, -2.23, -1.16, -0.58, -0.58, -0.58, -0.58, 0.0, 0.0, 0.0, 0.0, 0.0, 0.0, 0.0, 0.0, 0.57, 0.57, 1.14, 1.16, 2.33, 2.4, 2.12, 2.49, 2.47, 3.47, 4.16, 4.83, 4.83, 4.71, 5.52, 5.41, 6.33, 7.12, 7.63, 7.01, 7.93, 11.16, 15.51, 8.65, -2.68, -5.2, -3.13, -1.24, -1.2, -1.2, -1.2, -1.26, -1.26, -1.24, -1.24, -1.24, -1.24, -3.42, -3.42, -3.42, -3.42, -3.42, -3.42, -3.42, -3.64, -3.83, -3.64, -3.64, -3.42, -3.42, -3.42, -3.64, -4.08, -4.08, -3.83, -3.83, -3.83, -4.05, -4.05, -4.05, -4.05, -3.6, -3.6, -3.6, -3.4, -3.4, -3.4, -3.6, -3.6, -3.6, -3.6, -3.4, -3.4, -3.4, -3.4, -3.4, -3.42, -3.68, -3.68, -4.1, -4.08, -4.08, -3.4, -2.4, -1.61, -1.09, -0.58, -0.58, -0.58, -0.58, -0.58, 0.0, 0.0, 0.0, 0.0, 0.0, 0.0, 0.0, 0.57, 0.54, 1.16, 1.09, 1.65, 2.51, 2.35, 2.2, 1.66, 1.6, 1.2, 3.79, 4.71, 4.83, 5.64, 5.52, 6.31, 6.97, 7.12, 6.21, 7.13, 8.61, 12.42, 12.2, 0.0, -1.58, 0.32, 2.24, 1.7, 0.0, -0.89, -1.2, -1.26, -1.26, -1.58, -1.58, -1.58, -3.84, -3.84, -3.84, -3.68, -3.68, -3.42, -3.84, -4.08, -4.08, -3.64, -3.42, -3.42, -3.42, -3.42, -3.42, -4.08, -4.08, -4.08, -4.08, -3.83, -4.05, -4.05, -4.05, -4.05, -4.05, -4.05, -4.05, -3.4, -3.4, -3.4, -3.6, -3.6, -3.6, -3.6, -3.4, -3.4, -3.4, -3.4, -3.64, -3.42, -4.1, -4.1, -4.08, -4.08, -3.4, -2.92, -1.73, -1.09, -1.16, -0.58, -0.58, -0.58, -0.58, 0.0, 0.0, 0.0, 0.0, 0.0, 0.0, 0.0, 0.0, 0.58, 0.58, 1.16, 1.18, 1.63, 2.35, 3.33, 3.11, 2.47, 2.3, 1.4, 0.71, 3.11, 4.56, 5.49, 5.64, 6.42, 6.57, 6.33, 5.6, 5.4, 5.51, 6.21, 7.6, -1.24, 0.7, 4.09, 5.78, 6.11, 3.45, 0.57, 0.0, 0.0, 0.0, 0.0, 0.0, 0.0, -3.84, -3.84, -3.84, -4.1, -4.1, -3.84, -4.08, -4.08, -3.84, -3.42, -3.42, -3.42, -3.42, -3.42, -3.42, -4.08, -4.08, -4.08, -4.08, -4.05, -4.05, -4.05, -4.05, -4.05, -4.05, -4.05, -3.83, -4.08, -3.83, -4.05, -4.05, -4.05, -4.05, -3.83, -3.83, -4.08, -4.08, -3.42, -3.42, -3.42, -4.1, -3.84, -4.08, -4.08, -2.92, -2.26, -1.73, -1.09, -1.16, -1.16, -0.58, -0.58, -0.55, -0.55, -0.55, -0.55, 0.0, 0.0, 0.0, 0.0, 0.0, 0.58, 0.55, 0.55, 1.1, 1.14, 1.6, 2.29, 2.47, 3.33, 3.9, 3.22, 2.15, 1.24, 4.11, 4.95, 5.49, 6.14, 5.52, 4.87, 4.75, 4.75, 3.07, 1.59, 0.69, 1.7, 4.07, 5.69, 5.64, 7.01, 7.28, 5.09, 2.53, 2.84, 2.84, 2.15, 2.15, 2.15, -3.84, -3.84, -4.1, -4.1, -4.1, -4.08, -4.08, -3.84, -3.84, -3.42, -3.68, -3.68, -3.68, -3.42, -3.84, -4.08, -4.08, -4.08, -4.08, -3.83, -4.05, -4.05, -4.05, -4.05, -4.05, -4.05, -4.08, -4.08, -4.05, -4.05, -4.05, -4.05, -4.05, -4.08, -4.08, -4.08, -3.84, -3.84, -3.42, -3.84, -3.84, -4.08, -4.08, -3.4, -2.75, -1.73, -1.61, -1.16, -1.16, -1.16, -1.16, -0.55, -0.55, -0.59, -0.59, -0.55, 0.0, 0.0, 0.0, 0.0, 0.0, 0.55, 0.55, 0.59, 0.56, 0.53, 0.81, 0.88, 1.7, 3.22, 3.11, 3.79, 4.16, 4.01, 3.48, 4.74, 5.69, 5.76, 4.92, 4.13, 4.01, 3.96, 2.39, -0.82, 1.45, 2.6, 4.07, 4.12, 4.66, 6.26, 7.73, 7.59, 5.09, 5.09, 5.43, 5.69, 5.69, 5.69, -4.1, -4.1, -4.1, -4.1, -3.84, -4.08, -3.84, -4.1, -4.1, -3.68, -3.45, -3.45, -3.68, -3.84, -3.84, -3.84, -3.84, -4.08, -4.08, -3.83, -4.05, -4.05, -4.05, -4.46, -4.05, -4.32, -4.08, -4.32, -4.32, -4.05, -4.05, -4.05, -4.08, -4.08, -4.08, -3.84, -4.1, -4.1, -4.1, -3.84, -3.84, -4.08, -3.4, -2.92, -2.26, -1.84, -1.71, -1.71, -1.16, -1.16, -1.09, -1.09, -0.59, -0.59, -0.59, -0.59, -0.59, 0.0, 0.0, 0.0, 0.0, 0.55, 0.59, 0.56, 0.57, 0.53, 0.57, 0.61, 0.54, 1.49, 2.4, 2.6, 3.33, 4.01, 4.11, 4.43, 4.95, 4.83, 4.6, 3.95, 3.85, 3.96, 1.59, 0.81, 1.39, 1.86, 2.98, 3.48, 4.66, 6.22, 7.56, 8.18, 6.7, 5.43, 5.37, 5.3, 5.3, 5.3, -4.1, -4.1, -4.1, -4.1, -4.1, -4.1, -4.1, -4.1, -4.1, -3.45, -3.45, -3.45, -3.68, -3.68, -3.42, -3.42, -3.84, -4.08, -4.08, -3.83, -4.05, -4.05, -4.46, -4.46, -4.05, -4.08, -4.47, -4.73, -4.73, -4.73, -4.73, -4.08, -4.08, -4.08, -3.84, -4.1, -4.1, -4.1, -4.1, -3.84, -3.84, -3.64, -2.92, -2.92, -2.4, -2.23, -1.71, -1.71, -1.71, -1.09, -1.18, -1.18, -1.18, -1.18, -0.59, -0.59, -0.59, 0.0, 0.0, 0.0, 0.0, 0.0, 0.56, 0.56, 0.57, 0.53, 0.55, 0.59, 0.0, 0.65, 0.79, 1.66, 2.4, 3.22, 3.35, 2.53, 4.01, 4.12, 3.95, 4.13, 3.85, 3.96, 3.22, 4.87, 2.33, -0.0, 2.73, 4.84, 5.05, 6.55, 7.92, 8.76, 7.97, 6.24, 5.59, 5.0, 5.0, 5.0, -4.1, -4.1, -4.1, -4.1, -4.1, -4.1, -4.1, -4.1, -3.85, -3.85, -3.85, -3.85, -4.1, -3.68, -3.68, -3.42, -3.84, -4.08, -4.08, -4.08, -4.05, -4.46, -4.46, -4.46, -4.32, -4.47, -4.47, -4.47, -4.73, -4.47, -4.47, -4.08, -4.08, -4.08, -4.1, -4.1, -4.1, -4.1, -4.1, -3.84, -3.42, -3.64, -2.92, -2.92, -2.4, -2.23, -1.71, -1.71, -1.71, -1.61, -1.18, -1.18, -1.18, -1.18, -0.59, -0.59, -0.59, 0.0, 0.0, 0.0, 0.0, 0.0, 0.0, 0.0, 0.57, 0.58, 0.54, 0.55, 0.57, 0.0, 0.54, 0.76, 1.66, 2.53, 2.4, 1.83, 1.83, 2.35, 3.06, 3.25, 3.02, 3.2, 3.12, 4.95, 4.01, 0.0, 1.4, 4.52, 4.52, 5.86, 7.15, 8.49, 8.53, 7.08, 5.86, 5.49, 5.49, 5.49, -4.1, -4.1, -4.1, -4.1, -4.1, -4.1, -4.1, -3.85, -3.85, -3.85, -3.85, -3.85, -3.85, -3.45, -4.1, -3.84, -4.08, -4.08, -4.08, -4.47, -4.73, -4.73, -4.73, -4.08, -4.08, -4.08, -4.47, -4.47, -4.08, -4.08, -4.08, -4.08, -4.08, -3.84, -4.1, -4.1, -4.1, -4.1, -4.1, -3.84, -3.42, -3.42, -2.92, -2.92, -2.4, -2.23, -1.71, -1.71, -1.71, -1.73, -1.73, -1.18, -1.18, -1.18, -0.59, -0.59, -0.59, 0.0, 0.0, 0.0, 0.0, 0.0, 0.0, 0.0, 0.0, 0.0, 0.0, 0.55, 0.55, 0.0, 0.65, 0.54, 1.8, 2.3, 2.6, 1.84, 0.88, 0.82, 1.49, 2.47, 2.34, 2.28, 2.34, 2.45, 4.03, 0.77, 1.24, 3.13, 3.51, 4.0, 4.73, 6.64, 7.59, 7.44, 6.88, 6.42, 6.42, 6.42, -4.1, -4.1, -4.1, -4.1, -4.1, -4.1, -4.1, -3.85, -3.85, -3.85, -3.85, -3.85, -3.85, -4.1, -4.1, -3.84, -4.08, -4.47, -4.47, -4.47, -4.47, -4.08, -4.08, -4.47, -4.47, -4.47, -4.08, -4.08, -4.08, -4.08, -4.08, -4.08, -3.84, -4.1, -4.1, -4.1, -4.1, -4.1, -4.1, -3.42, -3.42, -2.96, -2.75, -2.26, -2.4, -2.23, -2.23, -2.23, -1.84, -1.73, -1.63, -1.18, -1.18, -1.18, -0.59, -0.59, -0.59, 0.0, 0.0, 0.0, 0.0, 0.0, 0.0, 0.0, 0.0, 0.0, 0.0, 0.0, 0.0, 0.0, 0.0, 0.54, 0.71, 2.0, 2.4, 2.47, 1.6, 0.82, 0.79, 2.39, 1.52, 1.57, 1.53, 1.56, 2.37, 3.16, 3.02, 3.72, 3.07, 2.17, 2.15, 3.13, 5.06, 6.14, 6.14, 6.05, 6.05, 6.05, -4.1, -4.1, -4.1, -4.1, -4.1, -4.1, -3.85, -3.85, -4.12, -3.85, -3.85, -4.1, -4.1, -4.1, -4.1, -4.75, -4.47, -4.47, -4.47, -4.08, -4.08, -4.08, -4.47, -4.47, -4.47, -4.47, -4.08, -4.08, -4.08, -4.08, -3.84, -3.84, -4.1, -4.1, -4.1, -4.1, -4.1, -4.1, -3.42, -3.42, -2.96, -2.75, -2.26, -2.26, -2.4, -2.23, -2.23, -2.23, -1.73, -1.73, -1.63, -1.18, -1.18, -1.18, -0.59, -0.56, -0.56, 0.0, 0.0, 0.0, 0.0, 0.0, 0.0, 0.0, 0.0, 0.0, 0.0, 0.0, 0.0, 0.0, 0.0, 0.0, 0.71, 0.87, 1.66, 1.7, 2.47, 1.72, 1.55, 2.47, 1.58, 1.57, 0.8, 1.59, 1.57, 3.96, 5.48, 5.7, 4.8, 1.9, 1.2, 1.2, 2.15, 4.01, 5.21, 5.52, 5.52, 5.52, -4.1, -4.1, -4.1, -4.1, -4.1, -4.1, -3.85, -4.12, -4.12, -4.12, -4.1, -4.1, -4.1, -4.47, -4.47, -4.47, -4.1, -4.1, -4.1, -4.1, -4.75, -4.47, -4.47, -4.47, -4.75, -4.47, -4.1, -4.1, -4.1, -4.1, -4.1, -4.1, -4.1, -4.1, -4.1, -3.68, -3.42, -3.42, -3.42, -2.96, -2.96, -2.75, -2.26, -2.4, -2.23, -2.23, -2.23, -2.26, -1.73, -1.73, -1.63, -1.18, -1.18, -1.1, -0.56, -0.56, -0.56, 0.0, 0.0, 0.0, 0.0, 0.0, 0.0, 0.0, 0.0, 0.0, 0.0, 0.0, 0.0, 0.0, 0.0, 0.0, 0.0, 0.0, 0.87, 1.83, 1.84, 1.52, 0.79, 0.81, 0.8, 0.79, 0.78, 1.55, 2.33, 3.98, 5.2, 6.87, 6.87, 4.5, 0.99, -0.0, 0.8, 1.61, 2.8, 4.0, 4.0, 4.0, -4.1, -4.1, -4.1, -4.1, -4.1, -4.1, -4.12, -4.12, -4.45, -4.75, -4.47, -4.47, -4.1, -4.1, -4.1, -4.1, -4.1, -4.1, -4.1, -4.47, -4.47, -4.47, -4.47, -4.47, -4.47, -4.1, -4.1, -4.1, -4.1, -4.1, -4.1, -4.1, -3.85, -3.45, -3.68, -3.68, -3.42, -3.42, -2.96, -2.96, -2.96, -2.75, -2.92, -2.92, -2.73, -2.4, -2.26, -2.26, -1.73, -1.73, -1.18, -1.1, -1.1, -0.56, -0.56, -0.56, 0.0, 0.0, 0.0, 0.0, 0.0, 0.0, 0.0, 0.0, 0.0, 0.0, 0.0, 0.0, 0.0, 0.0, 0.0, 0.0, 0.0, 0.0, 0.87, 1.66, 1.7, 1.63, 0.8, 0.0, 0.0, 0.76, 0.78, 2.34, 3.86, 4.66, 5.3, 6.87, 8.36, 7.58, 4.12, 0.57, 0.0, 0.57, 0.66, 1.58, 1.58, 1.58, -4.1, -4.1, -4.1, -4.1, -4.1, -4.1, -4.12, -4.12, -4.45, -4.75, -4.47, -4.47, -4.1, -4.1, -4.1, -4.1, -4.1, -4.1, -4.1, -4.47, -4.47, -4.47, -4.47, -4.47, -4.47, -4.1, -4.1, -4.1, -4.1, -4.1, -4.1, -4.1, -3.85, -3.45, -3.68, -3.68, -3.42, -3.42, -2.96, -2.96, -2.96, -2.75, -2.92, -2.92, -2.73, -2.4, -2.26, -2.26, -1.73, -1.73, -1.18, -1.1, -1.1, -0.56, -0.56, -0.56, 0.0, 0.0, 0.0, 0.0, 0.0, 0.0, 0.0, 0.0, 0.0, 0.0, 0.0, 0.0, 0.0, 0.0, 0.0, 0.0, 0.0, 0.0, 0.87, 1.66, 1.72, 1.63, 0.8, 0.0, 0.0, 0.78, 1.53, 2.37, 3.9, 5.51, 5.99, 6.2, 7.69, 9.54, 8.18, 4.83, 1.6, 0.65, 0.0, 0.0, 0.0, 0.0]}]